GFSSGP_con_sbcape_000.txt.gz
CAPE
1034 1152 1415 1232 874 45 35 12 59 16 126 111 109 310 1 189 388 301 175 524 631 478 664 1314 2556 2306 2171 2365 2321 2278 2521 2906 3000 2929 2883 2916 3001 3327 3246 3189 3200 3110 2852 2356 2290 2244 2314 2354 2347
608 1547 1183 1365 99 0 14 11 0 5 0 156 293 414 626 538 465 513 520 531 545 497 637 909 2639 2622 2488 2330 2297 2710 2574 2591 3013 2727 2838 2946 3048 3031 3017 2987 2996 2702 2814 2261 2310 2214 2023 1930 1910
364 1333 1293 563 22 11 30 2 1 7 0 36 196 333 432 668 676 738 622 759 851 1464 1479 1952 2878 2738 2557 2682 2970 3100 2999 3057 3169 3073 2794 2622 2616 2179 2155 2294 2345 2551 2710 2368 2233 2092 1934 1861 1796
1481 1010 1228 1 0 7 0 0 0 13 0 104 261 269 545 869 917 862 707 1146 1274 1510 1349 2287 2875 2715 2954 2970 2930 3208 3140 3073 3090 2861 2839 2605 2461 2328 2214 2293 2301 2294 2295 2280 2257 2110 1966 1866 1742
1506 1270 318 11 28 37 24 5 0 0 0 52 334 409 703 1411 1096 1274 1171 1114 1262 1393 1417 2088 3436 3408 3169 3317 3219 3336 3151 3034 2928 2758 2403 2707 2581 2297 2277 2308 2234 2156 2108 2058 1999 1978 1877 1833 1937
698 865 167 114 40 71 5 1 12 6 19 128 348 535 777 1041 914 1457 1389 1382 1475 1285 1444 1653 2973 3072 2869 2850 2953 3338 3002 2947 2913 2779 2569 2739 2305 2213 2123 2140 2227 2141 1932 1882 1957 2019 1958 1886 1883
46 98 120 111 160 12 2 1 0 2 25 229 291 579 659 775 688 1213 1378 1473 1392 1679 1874 2041 1994 2480 2798 3474 2886 3085 3177 2895 2626 2687 2580 2402 2289 2202 2204 2235 2265 2044 2060 1999 2133 2272 2074 2185 2156
284 488 49 87 312 117 14 0 0 7 54 154 365 380 576 612 856 677 1063 1172 1559 1671 2171 2589 2369 2279 2508 2597 3205 2954 3203 2907 2603 2248 2179 2204 2332 2281 2007 1731 1995 2350 2212 2176 2317 2473 2373 2264 2455
358 84 51 14 139 225 265 147 84 47 164 286 455 394 626 509 723 889 1377 1633 1775 1588 1698 1707 2254 2659 2900 2669 2282 2811 2746 2813 2447 2214 2267 2354 1820 1657 20 0 544 2170 2348 2150 2222 2283 2532 2311 2319
6 0 22 6 100 174 87 266 387 406 421 367 147 559 619 592 546 1097 714 1022 1115 1373 1599 1738 1799 2395 2574 2014 2618 2748 2321 2202 2320 2184 2651 2357 2210 1643 907 26 498 2036 2208 2140 2380 2264 2282 1806 1406
0 0 0 99 140 300 132 617 607 233 545 479 419 661 616 636 687 589 1125 876 1395 1541 1419 1513 2880 3087 2607 1794 2528 2797 2492 2208 2322 3042 2853 3088 2288 1112 1837 2021 1950 2179 2599 2344 2469 2396 2105 1888 1750
21 67 1 0 105 41 54 276 131 84 269 800 474 594 614 643 614 558 666 731 1229 1135 1561 2046 1889 2689 2886 2016 2269 2481 2330 2552 1444 2417 3447 2820 2645 2740 2846 2408 2605 2765 2412 2752 2421 2254 2620 2088 1927
45 11 0 17 26 1 43 279 695 155 589 457 348 548 605 583 556 521 541 632 1228 1224 1223 1918 2907 2868 3359 2941 3365 1824 1944 1519 2346 2789 2728 2808 2998 2808 2695 2737 2672 2529 2437 2432 2610 2507 2385 1965 1806
5 24 5 22 0 0 17 218 408 729 621 484 464 553 561 606 636 637 588 784 1003 1192 1279 1638 2544 3316 3126 3562 3225 3599 2636 2261 2817 2645 2236 2446 2818 2932 2215 2479 2281 2961 2274 2792 2386 2760 2275 2099 1973
0 1 14 0 10 0 0 257 613 749 798 769 809 743 692 642 603 639 594 841 985 989 1468 1918 1743 2796 3410 3368 3779 3530 3101 2075 2166 2459 3063 3047 3314 3274 2687 2627 2158 2010 2684 2678 2545 2373 1936 1813 1481
3 23 12 46 16 0 36 417 799 751 950 1055 1015 997 1014 1066 950 812 637 746 930 1201 2300 2152 1440 2472 3270 3291 3567 3133 2705 2670 2879 2670 2246 2780 3152 2520 2820 2187 1892 1881 2083 1711 1636 2003 1834 1731 1790
4 29 16 39 6 0 16 290 719 668 681 750 1061 1032 1196 1143 1422 1319 1138 1241 1639 2160 2327 2548 2577 2812 3280 3250 3578 3370 3387 3311 2955 3065 3040 2833 2815 2144 2773 2708 2347 2277 1652 1621 1497 1439 1909 1307 1050
0 6 51 65 20 21 44 135 377 317 427 570 726 701 898 927 776 1543 1600 1376 1527 2363 2721 3009 2603 3442 3160 3813 3440 3241 3048 2681 2880 2836 2220 2978 2687 2534 3083 2534 2215 1972 2161 1934 1783 1677 1561 1607 1546
28 14 2 22 92 123 40 33 182 65 193 473 619 587 552 468 1081 1139 1517 1947 1895 2011 3401 3121 3957 4009 3961 3713 3707 3955 3526 4027 3123 3193 2956 3027 3014 2094 2691 2627 2365 2234 1972 1824 2001 1813 1386 1276 1811
0 4 9 18 50 88 104 88 140 84 85 294 556 604 475 591 616 809 1018 845 1286 2653 3332 3766 4332 4473 4245 4428 4388 3654 3567 3373 3137 2799 2881 2316 2122 2474 2542 2520 2074 1780 1679 1641 1804 1666 1384 1275 1260
0 0 0 17 44 8 95 159 32 111 133 146 212 445 470 482 538 989 1159 1254 1511 2157 2998 3580 4453 4129 4328 4280 4280 3982 3410 3181 2528 2526 1666 1894 1130 1281 1861 1917 1878 1966 1982 1101 1368 1191 863 1109 1358
0 0 0 1 20 20 2 4 111 65 85 162 124 170 260 310 512 698 968 1409 1547 2219 2742 3640 4280 4664 4479 3519 2768 2715 1421 814 2055 1718 1537 1066 1077 1185 1166 1539 1735 1747 1533 1411 1064 996 1146 1411 976
0 0 0 0 0 0 3 7 121 205 61 67 107 114 148 205 269 388 602 1052 1264 1971 2276 3392 4466 4113 3282 2517 1628 1325 1400 736 1039 1056 1004 1310 1365 1484 1207 1547 1589 1512 1243 1253 1121 1197 1260 1115 1080
0 0 0 0 0 7 1 39 122 176 653 16 39 127 194 201 308 331 498 873 1113 1672 1994 3219 3571 3371 2832 2142 1692 926 381 749 720 1255 955 812 912 965 1728 1297 1338 1446 1145 1039 1014 1188 936 943 1012
0 0 4 3 9 0 6 15 100 93 92 224 164 158 185 337 518 622 447 736 1242 1684 2149 2995 2979 2973 2541 1835 1442 478 491 571 837 1250 1153 973 654 993 1383 1243 1309 960 1185 1152 880 895 855 699 575
0 0 0 22 14 16 9 17 97 34 118 483 398 611 241 224 760 866 1036 974 1602 1901 2605 2365 2723 2645 2337 2001 1758 1226 836 1167 1361 1709 1053 670 736 867 885 717 994 1103 1184 1182 1088 964 855 761 619
0 0 0 1 0 0 4 7 1 0 0 0 29 0 338 256 331 836 1227 1595 1854 1966 2401 2602 2770 2758 2362 1821 2651 2167 1942 1379 1085 868 894 835 1285 548 874 842 1038 1270 1270 1103 1339 952 827 643 573
0 0 0 0 18 26 10 1 11 114 5 1 0 0 30 555 599 544 906 1721 2284 2142 2359 2340 2638 2750 1979 1980 1916 1819 1808 1634 1549 1209 1109 1201 1429 1308 1218 1133 1142 1203 1207 1131 889 831 560 738 641
0 0 0 0 0 13 11 17 60 122 25 1 0 0 0 49 702 1006 1143 1975 2598 2024 2062 1666 1995 2231 1715 1705 1934 1437 744 881 1397 1149 1149 1209 1571 1565 1473 1391 1263 1207 1024 1094 879 885 1024 536 698
0 1 8 4 45 22 34 7 8 0 0 0 0 0 0 75 443 1436 1346 2185 2564 2143 1758 1252 1065 1363 1297 1403 1830 1563 1326 957 902 1139 1025 1078 1266 1477 1436 1481 1408 1287 1135 1040 906 837 881 786 724

GFSSGP_con_sbcape_003.txt.gz
CAPE
1365 1122 674 1219 1355 357 0 12 64 48 117 72 79 37 234 234 180 16 2 299 494 812 1288 1310 2053 2295 2384 2545 2370 2089 2258 2888 2982 3076 3274 3501 3482 3366 3534 3538 3466 3290 3163 2395 2356 2481 2375 2361 2262
529 529 988 962 502 0 1 1 13 135 105 43 51 435 402 237 155 251 412 324 480 719 1225 1744 2383 2474 2286 2442 2337 2855 2822 3025 3033 3167 3262 3320 3419 3490 3390 2958 2853 3100 2986 2343 2294 2424 2207 2124 1964
416 509 1116 1221 0 0 0 0 0 63 55 71 363 356 378 302 412 389 384 527 723 760 1460 1860 2925 2760 2638 2559 2963 3231 3117 3201 3000 3089 3382 3282 3254 2851 2518 2433 2617 2964 3110 2803 2280 2203 2171 2052 1839
321 517 1036 201 0 0 0 0 0 181 182 227 630 662 620 525 461 513 977 1162 1142 1144 1711 2830 3178 3033 2928 3349 3186 3332 3581 3380 3233 3004 2816 2790 2916 2624 2285 2315 2275 2294 2672 2775 2504 2401 2272 2164 2042
578 465 245 0 0 0 0 0 0 67 218 653 1000 832 907 605 561 915 1050 1130 1102 1420 2012 2635 3146 2965 3123 3020 3328 3576 3358 3290 3208 3025 2844 2807 3180 2606 2683 2371 2138 2028 2021 2184 2330 2227 2189 2148 2157
22 61 98 11 0 0 0 0 25 368 420 765 1319 1141 969 852 676 869 1070 1201 1160 1410 2194 2575 3303 3354 3431 3310 3222 3570 3333 3053 3048 2981 3193 2979 3070 2968 2608 2170 2101 2032 1855 1879 2020 2199 2217 2158 2198
27 5 140 61 0 0 0 0 0 143 404 404 978 1142 873 935 985 1024 1174 1256 1386 1372 1791 2611 2794 2840 3142 3508 3433 3302 3073 3336 3319 3209 3023 2894 2645 2327 2277 2339 2313 2095 1986 2018 2222 2476 2279 2462 2497
18 74 54 20 100 0 0 0 0 24 161 469 575 571 643 939 1156 1188 1304 1222 1461 1564 1761 1842 2348 2783 3017 3080 3560 2921 3129 2999 3230 3120 2647 2598 2426 1994 2054 1387 1539 2039 2339 2219 2304 2501 2489 2613 2399
97 196 7 27 11 21 0 0 0 16 156 366 328 552 486 582 1053 1162 1309 1445 1511 1862 1803 1767 1867 2179 2357 2721 3094 3603 3233 3378 3146 2902 2953 2621 1755 1082 601 888 550 1776 2330 2190 2123 2153 2477 2422 2127
292 436 13 43 22 177 203 247 306 130 255 320 483 473 404 486 713 935 1468 1287 1215 1530 1893 1802 1905 2100 2188 2144 2463 2689 2624 2641 2312 2170 2041 2050 1465 1039 1291 401 222 1708 2240 2037 2088 2042 2230 1944 1112
287 117 39 58 39 87 128 379 334 660 89 338 489 374 310 631 848 1215 958 777 1390 1447 1366 1323 1527 1722 2006 2163 2128 2074 1955 2075 2094 1973 1869 1791 1088 710 1043 1025 857 1124 1774 1572 2167 1693 1631 1223 943
4 17 96 67 173 90 152 3 0 423 76 504 462 402 421 394 484 539 600 606 925 978 1199 1917 2200 1956 1597 1658 1962 2076 1989 1939 1809 1923 1812 1789 1381 1047 1629 1589 1647 1533 1208 1369 1400 1206 1384 991 875
4 0 21 1 0 51 166 54 0 0 24 494 473 498 499 478 423 527 554 840 755 974 1649 1599 1625 1989 1665 1398 1796 1549 1853 1911 1550 1846 1820 1606 1346 1288 1777 1508 1558 1468 1429 1243 1357 1242 1155 1261 1165
0 0 11 0 4 125 227 8 93 0 75 334 381 464 466 457 439 396 518 897 819 685 1568 1834 1663 2131 1973 2038 2158 1948 1934 1602 1989 1850 1674 1995 1705 1484 1516 1347 1072 1670 1140 1444 1206 1093 971 867 951
0 0 0 0 0 114 145 337 525 299 178 227 329 357 415 418 453 456 520 663 757 774 1008 1503 1929 2329 1954 2106 2184 2373 2283 2233 1648 1685 1531 1608 1723 1290 1247 986 1128 1026 1007 1144 1134 1095 1180 921 857
0 0 0 0 0 23 222 341 520 418 297 280 310 373 427 387 500 442 518 504 677 478 1018 943 1807 2225 2156 2314 2380 2279 2038 2026 2025 1696 1631 1700 2076 1638 1223 1030 1079 955 944 713 493 440 478 604 707
0 0 0 0 0 0 81 422 452 499 568 649 625 598 657 634 476 402 415 380 463 874 1030 764 806 1831 2180 2170 2451 2243 2344 2358 2016 2018 1764 1742 1715 1509 1480 1566 1416 643 672 539 478 504 611 655 487
0 0 0 1 0 0 85 394 444 499 643 700 792 877 980 960 848 521 748 817 1031 887 1158 1351 1212 1545 2078 1966 2165 2368 1955 1450 1836 2073 1827 1354 1201 1529 1280 1218 1118 1015 1067 1020 947 704 545 700 654
0 0 10 0 0 0 6 267 358 303 323 350 549 694 715 785 1015 947 1020 950 1089 1372 1331 1617 1234 1955 1979 1953 2046 2127 1800 1721 1835 1966 1822 1553 1361 1531 1455 1366 1197 1211 1060 895 816 788 705 338 576
0 16 4 34 1 15 0 68 99 53 193 299 476 459 633 534 1205 1209 1113 921 1099 1266 1821 2026 2169 2366 2419 2406 2327 2212 2052 2162 1914 2247 1952 1158 774 1249 1385 1368 1033 599 847 651 338 460 476 469 651
0 0 27 69 55 40 20 11 10 21 18 138 448 377 377 464 754 1266 1341 1144 1256 1742 2083 2375 2600 2786 2527 1943 2458 2055 1569 1497 959 1156 1018 191 17 83 484 317 344 524 561 457 377 376 411 451 486
0 0 0 49 55 27 76 52 0 0 0 48 292 291 225 375 298 475 394 626 1450 1984 2178 2747 2709 2417 2670 2033 2206 1131 465 0 452 393 238 122 234 218 145 235 479 383 389 451 450 591 442 446 385
0 0 0 0 11 15 42 12 34 5 0 17 77 230 193 223 300 478 504 673 1134 1869 1985 1971 2460 2521 1571 57 265 0 0 0 97 103 6 0 0 156 260 508 252 267 291 312 560 394 352 325 334
0 0 0 0 0 0 0 5 48 4 30 53 51 32 96 143 349 427 517 791 1298 1510 2105 2652 2469 1056 292 21 0 0 0 0 0 47 0 17 14 44 419 224 101 247 254 285 213 401 373 338 188
0 0 0 0 0 0 0 0 64 41 46 4 4 0 16 80 227 315 466 764 1360 1360 2044 2676 1343 774 370 75 63 4 0 0 0 0 111 34 0 115 70 31 170 0 50 162 250 160 98 94 88
0 0 0 0 0 0 0 0 1 103 86 9 22 0 26 58 50 149 229 439 1084 1264 2031 2036 1186 1084 516 393 82 0 0 0 83 391 10 0 0 4 17 0 92 61 195 287 310 141 98 108 30
0 0 0 0 0 0 0 1 28 54 57 29 104 31 0 18 46 36 64 296 952 1028 2005 1678 1415 1217 772 600 194 81 81 40 168 36 0 2 142 0 2 42 92 174 377 386 339 405 234 51 14
0 0 0 0 0 0 2 34 12 2 43 81 91 0 15 0 76 100 58 299 968 1028 1646 1667 1568 1305 1115 859 590 536 454 196 111 50 8 78 0 106 47 154 205 247 255 303 338 74 3 41 38
0 0 0 0 0 0 0 0 91 24 0 0 0 1 13 63 31 226 219 495 1094 1204 1753 1719 1675 1443 1169 1089 686 568 548 255 240 112 51 125 271 371 343 313 262 237 320 343 373 163 137 213 117
0 0 0 0 0 0 11 16 0 0 0 0 0 0 0 25 86 185 489 912 1207 1337 1653 1671 1694 1413 780 980 740 102 2 30 160 60 54 49 30 48 124 76 144 379 398 444 402 161 217 235 119

GFSSGP_con_sbcape_006.txt.gz
CAPE
1805 1024 662 1021 593 0 1 111 24 86 97 160 131 178 98 155 15 0 11 324 757 1059 1262 1475 2035 2331 2133 2316 2449 2564 2967 2998 3010 3034 3010 3317 3279 3260 3223 3258 2766 3020 2471 2331 2427 2372 2318 2125 2191
852 856 883 922 185 0 0 50 112 35 117 159 410 343 237 211 169 54 340 571 980 1060 1127 1703 2387 2591 2275 2403 2573 2830 2760 2678 3140 3237 3214 3345 3651 3683 3013 2359 2398 2415 2337 2288 2172 2113 2144 2056 2115
416 563 910 904 60 0 0 114 157 0 34 210 308 315 247 442 380 306 322 662 1026 1243 1375 1658 2524 2613 2280 2693 3026 2937 2925 2619 2982 3231 3446 3708 3213 2623 2417 2283 2209 2322 2319 2212 2146 2050 2041 1966 1947
363 174 463 363 0 0 110 219 213 44 37 600 703 519 472 505 486 456 469 707 1053 1398 1512 2516 2719 2315 2462 2768 3038 2915 2859 2579 3109 3384 2936 2672 2462 2065 2326 2325 2332 2335 2315 2218 2162 2109 2082 2091 2126
294 84 59 2 0 0 136 145 199 465 658 662 630 733 582 575 952 954 915 843 994 1537 1928 2022 2611 2562 2696 2952 3285 3335 3084 2728 2843 2871 2603 2738 2912 2327 2366 2307 2128 2064 2015 1975 1970 2022 2073 2139 2183
7 1 16 31 2 0 83 218 423 1099 1003 842 748 736 586 785 1100 1117 1057 1033 1233 1700 2063 2062 2382 2442 2682 2949 2782 3200 2803 2589 2832 2875 2863 2927 2874 2520 2336 2179 2150 2058 1827 1836 1862 2087 2171 2184 2228
9 8 39 22 5 50 292 333 623 1169 1083 995 841 833 550 760 1030 1127 1099 1205 1550 2120 2276 2329 2270 2284 2700 3316 2931 2639 2535 2550 2769 2872 3005 2854 2599 2196 2168 2184 2267 2108 1936 1919 2047 2377 2355 2382 2502
4 0 5 0 0 0 210 82 422 867 737 1099 800 919 716 584 949 1118 1112 1236 1377 1734 2288 2405 2405 2364 2545 2750 3041 2321 2656 2484 2498 2550 2550 2474 2294 2114 2105 1856 2432 2203 2219 2176 2017 2358 2478 2418 2401
6 39 1 41 0 0 0 92 363 448 1112 676 581 700 927 823 954 1183 1140 1237 1445 1614 1819 2041 2290 2382 2364 2593 2570 2961 2534 2826 2739 2554 2485 2894 1792 1345 147 1105 1147 1607 2244 2276 1996 2104 2295 2555 2199
17 8 3 11 10 13 0 26 150 497 632 594 721 765 1108 1136 1196 1225 1383 1392 1405 1624 1471 1617 2001 2138 2100 2782 2163 2279 2324 2491 2323 2264 2089 1848 1384 1107 1280 814 745 881 2028 2213 1978 2101 2043 2095 1026
6 8 0 3 71 165 294 370 312 371 511 548 525 608 1286 1199 1253 1346 1508 1380 1566 1629 1592 1414 1793 1825 1938 2182 1888 1841 1913 2115 1939 1682 1525 1536 1061 1189 673 742 792 877 1392 1414 1830 1823 1506 1266 861
9 0 16 5 251 128 268 54 2 187 354 490 461 663 1044 1083 1092 1440 1262 1179 1202 1448 1507 1368 1548 1644 1790 1893 1916 1791 1691 1619 1783 1612 1570 1410 1024 568 1012 1039 1269 1207 943 1132 1163 1025 992 885 736
0 0 5 68 31 62 32 0 98 324 392 313 277 465 634 920 969 887 760 1100 1237 1173 1181 1604 1625 1578 1467 1578 1602 1650 1744 1787 1644 1557 1562 1515 1146 969 1289 1299 1261 1155 1099 835 994 708 758 770 751
4 21 81 106 127 87 0 0 0 481 409 310 278 305 345 443 484 455 584 827 871 1199 1612 1712 1553 1470 1261 1193 1420 1250 1245 1600 1435 1420 1416 1415 1106 919 1171 1161 810 786 771 918 989 882 850 801 651
21 15 2 54 142 282 418 442 207 216 428 400 370 354 352 320 319 404 705 558 471 1050 1517 1337 1349 1698 1601 1645 1712 1598 1525 1302 1415 1335 1271 1105 1381 1275 1040 724 596 764 675 848 818 561 452 431 585
0 0 0 0 109 246 295 398 126 331 376 344 408 388 389 272 206 353 681 474 392 654 1416 1342 1591 1757 1312 1524 1787 1996 1669 1597 1531 1322 1080 1074 1287 1226 973 530 445 655 554 673 417 231 282 281 352
0 0 0 0 0 114 228 356 185 93 198 279 315 322 309 199 158 262 476 415 365 380 879 1035 1440 1642 1560 1742 1868 1836 1822 1709 1517 1480 1175 1198 1070 1102 1015 608 753 526 454 320 287 384 311 489 374
0 0 0 0 0 26 169 243 254 163 143 195 193 179 231 214 208 222 262 327 266 350 482 452 800 1586 1739 1725 1849 1818 1745 1232 1138 1240 1117 1053 829 1033 1040 796 763 624 664 652 631 615 245 337 398
0 0 0 0 0 122 113 204 301 259 295 305 313 388 352 250 155 183 238 249 526 565 546 521 775 1176 1534 1487 1494 1477 1519 1155 1146 1074 1237 1172 913 1020 939 875 791 730 695 593 488 443 438 303 214
0 0 0 0 0 0 135 195 222 290 424 436 428 576 568 621 245 265 443 649 685 603 604 934 873 1384 1405 1480 1318 1368 1183 1192 1274 1383 1499 890 717 948 928 936 820 431 407 235 129 139 220 163 380
0 0 0 4 7 4 95 98 139 238 313 243 340 606 553 694 465 466 617 600 826 820 1088 1136 1359 1381 1498 1504 1587 1532 1112 773 659 737 646 137 0 10 160 117 47 144 70 113 144 196 256 206 166
0 0 3 28 35 9 29 47 6 67 12 50 130 256 437 588 793 765 709 516 739 1127 1481 1415 1655 1838 1801 1494 1767 1361 369 51 68 189 49 0 0 0 0 0 168 80 33 121 159 314 213 184 108
0 0 0 56 43 15 21 18 41 0 0 0 42 181 262 505 911 961 843 645 1002 1289 1762 1640 1789 2023 2026 1279 1429 151 0 0 5 0 0 0 0 0 0 172 10 0 0 0 135 17 103 67 113
0 0 0 0 0 10 14 8 0 3 13 0 0 241 182 300 835 1013 1024 575 1261 1386 1711 1968 1707 1515 725 118 0 0 0 0 0 0 0 0 0 0 9 0 0 0 0 0 0 55 63 53 34
0 0 0 0 0 0 0 24 0 0 7 0 0 162 179 250 344 601 561 462 1369 1527 1514 1856 1682 1158 8 0 0 0 0 0 0 0 0 0 0 0 0 0 0 0 0 0 0 0 0 4 10
0 0 0 0 0 0 0 0 0 3 7 0 0 124 163 170 173 268 178 297 969 1391 1445 1720 1234 765 0 0 0 0 0 0 0 0 0 0 0 0 0 0 0 0 0 0 0 0 0 0 0
0 0 0 0 0 0 0 0 0 7 9 1 0 3 56 116 154 192 260 368 840 1138 1495 1776 935 372 3 0 0 0 0 1 0 0 0 0 0 0 0 0 0 0 1 0 0 0 82 0 0
0 0 0 0 0 0 0 0 0 36 31 19 0 0 0 30 120 155 242 376 957 1032 1555 1810 915 455 65 4 0 0 0 4 0 0 0 0 0 0 0 0 0 0 0 0 0 0 0 0 0
0 0 0 0 0 0 0 0 0 39 16 32 12 8 0 5 28 88 188 274 874 1026 1477 1751 1086 701 188 90 0 0 26 8 3 0 0 0 0 10 53 34 8 0 0 0 37 19 0 0 0
0 0 0 0 0 0 0 0 0 0 0 9 41 50 0 0 14 50 63 125 580 850 1473 1624 1337 926 472 256 64 100 153 46 20 18 4 0 9 1 0 0 0 0 15 14 16 58 38 21 30

GFSSGP_con_sbcape_009.txt.gz
CAPE
1481 924 529 766 224 5 63 36 44 45 122 101 131 146 132 72 8 1 13 142 341 384 469 1050 1675 1617 1672 1832 2222 1995 2115 2326 2642 2828 2970 2883 2495 2416 2424 2505 2542 2372 2245 2329 2364 2262 2133 2154 2080
991 651 755 645 0 0 5 27 46 27 117 220 314 222 213 167 93 132 231 759 894 992 1059 1304 1993 2079 2125 2257 2492 2659 2519 2471 2930 2993 3139 2881 2623 2593 2453 2438 2345 2211 2180 2140 2060 2061 2022 2036 2087
627 624 717 519 0 5 14 6 17 53 367 408 258 238 265 165 194 237 271 809 1006 1054 1439 1764 2279 2399 2212 2303 2767 2675 2613 2657 2815 2839 2721 2809 2656 2219 2132 2067 1989 2085 2093 2078 2034 2003 2021 1969 2008
304 76 113 2 0 0 125 7 0 90 78 537 456 469 474 501 352 331 572 1027 1023 1221 1444 2175 2179 2065 2382 2333 2620 2621 2680 2805 2943 3069 2894 2502 2144 2255 2159 2038 2134 2171 2119 2059 1991 1968 1993 2053 2087
116 0 0 0 0 148 174 44 63 109 560 573 541 512 509 718 397 494 743 842 990 1329 1738 1907 2779 2534 2681 2452 2270 2381 2345 2585 2913 2726 2157 2105 2012 2156 2160 2132 2118 2060 2057 2053 2057 2069 2064 2109 2016
2 0 0 0 0 209 207 154 175 798 837 557 497 528 646 871 571 775 801 831 1308 1617 1702 1903 2480 2639 2586 2310 2136 2409 2060 2007 2161 2319 2364 2552 2428 2265 2251 2120 2017 1966 1857 1864 1817 2025 2146 2126 2193
0 0 1 0 0 200 242 508 963 818 563 578 544 533 930 979 884 931 739 874 1340 1804 1808 1672 1730 1997 2526 3003 2441 2124 2197 2082 2083 2472 2437 2569 2442 2340 2222 2167 2153 2027 1909 1867 2029 2339 2400 2301 2368
0 0 0 0 0 145 256 324 926 738 847 760 581 444 529 977 1166 1045 1063 1246 1785 2015 2070 1977 1821 1852 2149 2424 2534 2351 2233 2004 2012 2462 2351 2435 2320 2017 2134 2067 2354 2207 2266 2276 2250 2082 2259 2313 2215
0 0 0 0 0 5 219 435 957 983 850 507 602 572 583 1032 1118 973 1113 1298 1551 1987 1975 2067 2041 2028 2207 2388 2099 2414 2170 2313 2280 2336 2438 2779 1925 1597 727 810 1499 1381 2056 2157 2168 1795 1886 2049 1905
33 0 0 0 0 38 91 412 562 834 633 662 635 682 726 1056 1140 1061 1119 1256 1429 1616 1673 1843 2011 1967 2016 2598 2282 2163 1844 2062 2044 2157 2139 1735 1262 1155 904 1255 1420 762 1401 2195 1943 2017 2060 1854 975
5 44 0 2 5 0 38 180 258 662 594 538 780 802 795 955 1147 1121 1198 1202 1147 1401 1558 1546 1781 1905 1844 2231 1879 1823 1811 1714 1780 1843 1598 1615 1185 1175 858 644 630 733 1118 1398 1358 1647 1289 1078 800
0 2 2 1 167 3 48 137 482 356 446 488 912 952 958 1059 1183 1203 1296 1205 1186 1410 1357 1310 1665 1775 1752 1798 1823 1683 1777 1589 1681 1502 1370 1256 1071 680 419 752 840 1084 818 975 895 896 643 833 832
0 0 0 2 48 34 0 56 228 248 415 552 979 1173 1127 1191 1233 1265 1362 1268 1397 1469 1450 1286 1491 1548 1633 1513 1681 1574 1643 1592 1456 1513 1406 1338 1166 747 667 1083 1045 1070 843 807 804 678 634 516 569
0 2 18 15 6 0 15 217 318 408 456 465 1071 1205 1179 1231 1222 1306 1223 1142 1214 1427 1226 1305 1500 1426 1319 1303 1486 1366 1391 1359 1454 1297 1409 1441 1258 903 846 1044 632 594 747 628 851 709 629 529 432
2 0 30 23 26 0 35 61 397 360 395 457 961 963 1026 1018 1099 945 812 1009 1161 1008 1042 1412 1499 1258 1181 1091 1213 899 1132 915 1214 1214 1162 1185 1172 935 818 650 484 471 564 535 546 337 155 192 195
0 0 44 55 77 78 193 245 394 312 254 281 372 523 637 749 522 408 560 813 781 922 1200 1363 1499 1339 1121 1128 1249 1232 1289 1144 1100 1123 966 881 1013 1140 978 423 413 452 409 409 412 186 223 228 182
0 0 0 55 39 136 171 143 281 291 196 208 244 289 326 187 240 282 511 453 323 789 1140 1049 1112 1343 1119 1176 1261 1456 1363 1261 1200 1148 820 710 783 924 875 340 387 325 346 329 255 283 279 336 205
0 0 4 49 99 8 104 163 266 254 192 190 187 199 229 236 91 222 519 358 202 691 997 992 1027 1211 1111 1203 1366 1429 1368 1340 1241 1137 838 803 717 797 668 606 547 469 422 383 331 399 230 242 288
0 0 9 13 0 85 101 133 130 179 119 121 164 166 161 166 102 168 417 367 194 226 651 605 711 1065 1134 1184 1255 1280 1529 1267 1037 878 1064 1035 699 922 660 525 410 337 320 259 223 224 255 284 94
0 0 0 0 3 57 73 137 73 62 71 75 80 77 101 119 68 133 219 247 179 193 314 220 442 747 1196 1143 986 1052 1002 874 817 868 1192 965 761 727 615 469 421 353 165 43 12 8 17 63 195
0 0 0 0 0 78 119 121 167 122 120 94 120 124 119 82 74 80 121 129 257 227 266 312 311 817 1140 1154 974 1058 822 583 557 662 678 317 395 390 323 254 36 0 0 0 0 2 9 31 54
0 0 0 0 0 6 74 48 85 147 188 224 255 210 251 225 103 87 156 231 335 291 355 433 561 968 1085 1048 1216 1251 1176 507 23 132 132 4 0 0 0 0 0 0 0 0 0 37 5 0 3
0 0 0 0 0 11 17 14 48 63 143 181 213 152 359 371 173 131 181 277 396 448 675 699 890 1115 1257 1143 1325 1107 186 0 0 0 0 0 0 0 0 0 0 0 0 0 0 0 0 0 0
0 0 0 0 0 1 9 0 0 17 116 144 114 115 355 256 438 219 215 277 365 627 929 1132 1125 1276 1328 1142 932 630 2 0 0 0 0 0 0 0 0 0 0 0 0 0 0 0 0 0 0
0 0 0 0 0 0 0 0 0 0 71 89 69 25 173 212 571 487 473 385 414 737 1054 1328 1310 1306 1197 826 251 21 0 0 0 0 0 0 0 0 0 0 0 0 0 0 0 0 0 0 0
0 0 0 0 0 0 0 0 0 0 12 37 26 18 105 122 461 662 698 534 477 919 1120 1421 1462 1343 639 81 0 0 0 0 0 0 0 0 0 0 0 0 0 0 0 0 0 0 0 0 0
0 0 0 0 0 0 0 0 0 0 0 4 0 0 65 96 270 696 812 583 617 963 1141 1367 1593 1428 360 0 0 0 0 0 0 0 0 0 0 0 0 0 0 0 0 0 0 0 0 0 0
0 0 0 0 0 0 0 0 0 0 0 0 0 0 31 85 151 466 747 505 736 1087 1210 1265 1525 1459 476 0 0 0 0 0 0 0 0 0 0 0 0 0 0 0 0 0 0 0 0 0 0
0 0 0 0 0 0 0 0 0 0 0 0 0 0 6 66 110 198 386 381 401 991 1196 1283 1364 1222 457 6 0 0 0 0 0 0 0 0 0 0 0 0 0 0 0 0 0 0 0 0 0
0 0 0 0 0 0 0 0 0 0 0 0 0 0 0 0 60 133 179 274 271 549 897 1264 1401 975 477 55 0 0 0 0 0 0 0 0 0 0 0 0 3 0 0 0 0 0 0 0 0

GFSSGP_con_sbcape_015.txt.gz
CAPE
1763 1551 1169 827 74 37 54 56 55 122 87 166 108 68 101 103 29 89 55 195 200 309 493 1021 1307 1164 1159 1302 1366 1556 1887 1979 2421 2583 2381 1837 1530 1856 2180 2402 2445 2205 2101 2070 2100 1995 1972 2022 2033
1297 855 891 678 39 49 32 40 148 118 234 262 271 223 152 103 103 103 209 324 237 226 497 1002 1479 1237 1348 1337 1374 1962 1456 1655 2495 2593 2324 2016 1876 1991 2240 2249 2096 2121 2117 2008 2001 1949 1933 1940 1924
836 626 1031 50 0 0 55 36 210 343 381 239 266 227 86 136 105 132 223 499 670 750 844 1365 1385 1667 1605 1375 1552 1860 2442 1865 1967 2268 2134 2068 2206 2302 2263 2121 2056 2068 2034 1965 1869 1767 1793 1873 1950
659 594 32 0 0 23 17 156 483 499 527 407 151 146 267 150 132 225 488 614 816 966 1060 1612 1592 1737 1738 1708 1701 1892 2349 2221 2440 2266 1992 2134 2086 2086 1968 1873 1979 2010 1964 1938 1899 1941 1943 1944 1807
204 27 0 0 11 259 56 222 485 560 621 333 248 231 168 623 404 390 650 758 919 1152 1420 1559 1888 1991 2111 2055 2084 2496 2145 1890 2133 2228 2082 2041 2118 2105 2024 2094 2092 2010 1934 1899 1868 1840 1978 2073 2017
84 0 0 0 92 238 84 285 670 734 606 372 254 166 399 703 312 491 606 740 752 1043 1323 1438 1729 2067 2064 1931 2016 2241 1883 1801 2014 2113 2045 2054 2114 2161 2097 2017 1934 1931 1908 1836 1828 2064 2230 2258 2163
81 21 7 7 312 299 142 299 698 595 514 401 254 351 554 574 304 602 643 842 951 1099 1306 1674 1710 2118 2083 2490 1886 2034 2110 1950 2120 2102 2158 2241 2253 2228 2185 2103 2104 2074 1968 2028 2233 2164 1964 2115 2057
20 11 27 9 219 110 294 594 806 478 531 469 393 418 424 680 426 599 664 874 1045 1140 1566 1964 2127 1982 1648 1774 2030 2125 2216 2215 2183 2159 2398 2402 2331 2202 2029 2135 2053 2171 2137 2102 2138 1945 1738 1793 1732
0 5 17 9 175 193 490 546 824 742 616 453 530 501 326 809 548 543 731 999 1330 1457 1665 1767 1885 1939 2220 2082 1796 1901 1884 1886 1971 2105 2260 2180 1852 1801 2020 1321 1599 1664 1764 1755 2080 1918 1668 1965 1654
81 10 3 0 70 249 538 714 880 824 485 490 703 718 885 976 644 539 565 815 1007 1234 1538 1818 1836 1761 1895 1531 2246 2053 1807 1574 1726 1957 2280 2254 2272 2184 1789 1095 1802 1703 1226 1770 1759 1841 1854 1581 1605
21 9 6 6 0 290 526 678 810 717 467 475 858 986 1000 944 876 636 538 578 765 1043 1255 1544 2057 2097 2057 2264 2341 2644 2346 2146 1978 2291 2418 2450 2111 1928 1949 1981 1602 1541 1578 1743 1593 1761 1658 1755 1914
2 0 2 6 7 295 450 632 505 513 127 384 805 928 973 917 855 662 627 717 802 998 1182 1428 1690 2224 2280 2168 2048 2105 1954 2088 1813 1680 2345 2306 2002 1848 2093 1787 1726 2098 2262 1970 1797 1802 1949 1767 1640
0 0 0 0 2 223 400 508 465 488 300 614 879 959 935 881 914 963 854 759 1016 1156 1296 1740 1929 2053 2330 2476 1967 1742 1900 1654 1620 1880 1894 1837 1715 2378 2288 1919 1882 2289 2099 1737 2265 2138 1941 1776 1381
0 0 0 0 0 113 315 350 373 300 732 814 931 955 926 987 1114 1201 980 992 1099 1139 1300 1685 2010 2211 2367 2330 2494 2317 2096 2202 2005 2009 1747 1960 1898 2661 2634 2373 2487 2411 1898 1762 1812 1843 1688 1399 1306
0 35 44 13 0 52 230 375 375 504 799 790 819 886 934 1041 1128 1170 1008 1090 1192 1090 1071 1265 1598 1918 2362 2367 2293 2444 2255 2691 1945 1877 2059 1984 2341 2396 2372 2862 2673 2029 1741 1762 1592 1487 1311 1136 929
0 11 24 27 0 70 61 38 271 666 846 681 631 760 846 928 1040 1206 1183 1313 1418 1177 1206 1289 1049 1360 1889 2120 2256 2281 2311 2249 2270 2419 2421 2117 2224 2249 2447 2740 2421 1964 1658 1435 1385 1384 1123 959 673
0 1 24 87 0 114 97 39 277 609 733 749 632 703 810 924 1109 1313 1388 1502 1585 1580 1552 1699 1680 1704 2121 2284 2300 2337 2612 2701 2817 2236 2273 2282 2351 2012 2389 2231 2227 1784 1665 1674 1404 1164 1099 424 285
0 0 19 145 55 130 129 165 397 535 625 752 796 809 909 1108 1304 1433 1502 1461 1562 1584 1816 1967 1885 2111 2356 2349 2379 2138 2403 2315 2199 2864 2527 2134 2367 2067 2128 2174 1800 1831 1753 1182 1132 1173 871 708 743
3 32 88 109 67 100 123 117 375 484 474 565 815 993 915 951 1044 1208 1354 1397 1446 1568 1692 1942 2136 2369 2343 2225 2231 2191 2124 2505 2528 3023 2155 2236 2200 2065 2215 2148 1773 1572 1154 942 1065 762 675 495 690
3 26 61 37 77 90 73 112 212 469 467 449 567 798 909 949 1061 1194 1218 1112 1228 1464 1556 1927 2158 2470 2450 2243 2219 2141 2320 2340 2284 2316 2531 2368 2187 2212 2071 1847 1389 1349 984 1005 677 718 411 368 717
0 26 36 36 35 84 125 53 123 363 453 386 373 437 517 625 771 803 895 994 1072 1207 1479 1855 2352 2496 2355 2319 2246 2213 2093 1995 2047 2142 2051 2139 2190 2098 1916 1546 1225 1288 669 216 599 468 592 257 516
0 0 49 57 61 27 65 33 99 263 507 477 433 378 368 404 489 501 559 825 1042 1050 1237 1930 2090 2373 2201 2315 2123 2226 2031 2048 1997 1715 1850 2166 1969 1755 1623 1227 801 750 329 539 407 358 487 474 148
0 0 1 42 86 27 67 11 21 169 328 526 526 476 401 343 374 418 437 617 875 988 1010 1290 1956 2266 2125 2231 2494 2233 2289 2205 1978 1343 1741 2161 1491 1272 731 461 431 543 485 554 319 535 440 324 192
0 0 0 0 22 9 4 6 0 129 283 331 337 426 430 364 366 391 427 460 687 861 956 1079 1775 2272 1972 1986 2208 2383 2460 2394 1770 1226 917 1431 980 495 313 260 581 782 620 375 276 399 458 399 429
0 0 0 0 0 0 0 4 28 31 143 186 224 287 333 347 325 376 498 533 844 978 1106 1289 1901 2078 1724 1808 2119 2245 2455 2598 2089 1713 1042 980 809 320 180 385 608 673 581 298 288 406 369 321 339
0 0 0 0 0 0 0 0 0 65 64 76 182 198 282 313 480 472 865 826 870 856 1482 1580 1893 2043 1843 1745 2342 2624 2586 2301 1931 1566 945 839 779 340 285 450 520 612 222 172 278 260 299 295 282
0 0 0 0 0 0 0 0 0 1 2 3 52 129 258 414 476 586 646 669 1003 1233 1504 1687 1960 2119 2131 1937 2549 2539 2658 2339 1886 1279 867 784 596 218 411 453 561 326 46 168 328 168 315 389 495
0 0 0 0 0 0 0 0 0 0 26 60 30 83 204 438 564 650 987 1080 1203 1239 1576 1769 1965 2128 2101 1735 2295 2292 2138 1512 1772 1102 394 547 449 299 454 524 360 159 185 225 378 148 118 280 342
0 0 0 0 0 0 0 0 0 0 23 46 67 40 117 376 478 840 1182 1147 1346 1272 1248 1506 1758 2155 2181 2148 2529 2604 1803 1413 860 696 309 105 427 354 449 481 261 262 292 271 348 418 302 315 481
0 0 0 0 0 0 0 0 0 0 0 1 17 14 13 242 398 794 989 1127 1133 1399 1201 1352 1712 1746 2154 2247 2482 2167 1353 315 721 13 103 256 172 253 334 342 293 299 272 360 460 440 191 445 495

GFSSGP_con_sbcape_021.txt.gz
CAPE
1021 845 1362 1659 968 170 122 128 189 259 218 96 48 256 206 179 119 19 49 354 246 380 470 592 1116 1091 1241 1330 1240 1507 1375 1552 1947 2060 2208 1891 2144 2341 2178 2161 2125 2074 1957 1855 1801 1739 1738 1737 1607
1222 1478 2091 1898 561 8 109 163 88 215 289 198 161 207 199 271 80 90 194 353 226 208 324 443 1175 1267 1414 1394 1299 1226 1121 1176 1374 1768 1939 1773 2197 2174 1982 1974 2012 1973 1886 1761 1649 1721 1749 1755 1644
1713 1727 1860 1636 76 20 119 109 203 183 175 189 230 209 437 355 296 413 374 166 137 552 858 804 1281 1450 1544 1446 1662 1548 1494 1498 1405 1548 1671 1868 2210 2095 1836 1905 1950 1863 1754 1688 1773 1763 1781 1758 1780
1958 1450 1310 130 13 83 172 215 163 209 242 250 375 403 401 415 487 568 748 506 552 769 884 1104 1431 1506 1529 1555 1734 1807 1910 1698 1408 1516 1975 2152 2016 1786 1811 1922 1787 1736 1742 1746 1712 1785 1885 1977 1935
1403 1050 286 28 35 88 234 241 250 203 236 309 428 581 471 620 631 650 752 578 759 873 1133 1108 1858 1753 1718 1882 2175 1995 1910 1640 1441 1854 2115 1994 1974 1845 1950 1755 1618 1688 1781 1859 1945 1944 1773 1785 1818
1010 280 58 28 2 24 184 201 165 292 273 237 489 588 835 781 829 941 964 980 799 1141 1212 1401 1988 1935 1995 1932 1887 1651 1635 1663 1840 1986 1978 2091 2095 1920 1806 1624 1681 1736 1881 1965 2196 2020 1580 1678 1519
781 250 63 21 1 8 19 48 126 140 117 353 552 837 784 909 969 922 1197 965 838 984 1226 1397 1608 1884 2127 1956 1715 1709 1775 1879 1883 1896 1964 2001 2026 1885 1643 1620 1688 1695 1927 1990 1831 1768 1471 1615 1451
741 180 50 79 59 0 0 45 21 54 192 221 604 793 828 1015 859 788 763 848 864 1295 1117 1330 1604 1445 2030 2194 1670 1597 1691 1669 1720 1771 1988 2051 2031 1874 1447 1608 1934 1682 1695 1709 1712 1646 1430 1658 1524
416 116 156 26 57 0 0 15 16 122 53 94 278 595 740 836 768 716 664 893 1083 1294 1367 1424 1337 1224 1384 1641 1747 1722 1764 1734 1726 1779 2110 1851 1794 1967 2184 1721 1486 1812 1779 1898 1584 1691 1564 1642 1740
366 56 88 23 46 15 3 16 48 59 66 178 181 566 705 785 752 705 719 1106 1077 1237 1171 1330 1263 1298 1224 883 1692 1397 1247 1262 1240 1323 1962 1399 1753 1759 1307 1367 1416 1802 1270 1616 1677 1729 1792 1918 2122
104 227 52 11 42 57 4 34 18 137 41 141 223 628 623 674 790 747 741 850 986 1427 1372 1187 1668 1287 1198 2286 1355 1472 1387 1310 1374 1746 1709 1550 1608 1495 1385 2120 2433 2432 1672 2002 2189 1919 1897 1997 1800
29 119 47 62 1 99 24 120 14 5 68 53 274 577 603 712 745 746 777 910 1166 1293 1087 881 1200 1627 1491 1424 1181 1214 1066 1020 1002 1368 1823 1865 1732 1402 1602 1441 2527 2456 1709 2250 2992 2148 2131 1486 2264
14 59 22 8 5 25 63 102 34 7 23 72 355 565 637 658 661 662 709 818 1057 1144 1052 1046 1287 1877 1753 2030 1314 1158 1042 965 946 1089 1674 1437 1331 1415 1554 1664 1793 2573 2350 1918 1863 2321 2698 1766 1687
5 15 4 0 7 6 62 107 38 10 41 191 537 606 603 537 557 613 658 824 1028 1145 1150 1214 1502 1805 1941 2427 2144 1458 1395 1395 1026 1031 1206 1852 1575 1857 1426 2670 2662 2346 2120 2225 1937 2761 2171 2431 2276
0 0 6 0 4 7 16 71 48 66 243 324 516 585 475 466 510 634 640 765 953 1119 1187 1297 1475 1667 2076 2068 2065 1822 1415 1191 1494 1268 1546 1698 2349 2287 2434 2639 1916 2303 2561 2130 2039 2270 2159 1670 1542
0 0 38 15 0 10 11 54 61 224 201 518 395 571 485 472 503 631 641 745 897 952 1125 1302 1250 1441 1939 2603 2333 1899 1585 1975 2385 1247 2029 2179 2147 2467 2446 2129 2134 2316 2473 2535 2012 1874 1965 426 148
0 1 12 7 16 105 88 31 140 300 145 135 502 378 523 521 549 656 688 821 869 1019 1180 1309 1400 1356 1840 2867 2303 2337 2952 2669 1826 2677 2019 1891 2113 2392 2488 1994 2371 2338 2236 2287 1824 1630 613 191 1
4 8 78 189 24 135 99 301 318 482 243 23 221 226 338 404 531 688 793 824 870 1005 1268 1502 1444 2064 2769 2663 3391 2374 2256 2192 1852 1825 2363 3008 2066 2624 2105 1944 1939 2065 1921 1866 2020 1058 448 86 0
28 84 41 55 35 71 160 193 320 541 516 193 48 150 178 239 508 636 839 738 823 1019 1500 1770 2284 3668 2501 2053 2243 2265 2023 1943 1570 1762 1830 2772 2374 2226 2173 2108 2066 1997 1632 1454 859 350 130 0 213
0 48 77 41 76 45 113 185 374 549 582 509 292 110 147 149 240 528 856 782 979 1229 1747 2810 3057 3907 3344 2684 2793 2422 2072 1017 1406 2259 2963 2310 2076 2315 2120 2174 2254 2275 950 1130 315 60 22 2 123
0 20 74 77 149 141 174 127 210 269 591 543 441 266 192 102 132 347 741 953 1095 1239 1833 3201 3975 4270 3990 3808 3195 2664 2426 1737 1658 911 1493 2240 1901 1991 2166 2368 1582 1759 789 27 231 152 105 46 25
0 1 26 75 108 216 71 245 222 178 205 482 631 570 297 274 177 205 635 1008 1103 1309 1759 3266 3921 4376 4072 4401 3113 3598 2359 1622 925 1008 895 897 927 1081 1567 1034 1137 1010 113 1126 195 95 189 160 76
0 2 24 58 113 176 106 131 116 104 130 154 451 600 531 286 289 198 398 735 975 1226 1562 2251 4162 4525 4472 4391 4015 2829 2990 1282 1092 902 2193 1265 2352 1114 758 1258 1058 515 0 213 297 99 299 253 21
0 0 43 60 89 112 193 110 190 35 156 185 199 471 711 487 374 476 382 536 774 996 1316 1762 3995 4635 4723 4575 4493 4601 4497 2756 1798 1880 1401 901 1076 1023 1186 1152 926 422 66 342 357 202 208 140 299
0 0 53 79 92 63 146 133 307 151 163 138 123 141 488 793 328 353 540 549 883 1262 1645 1934 3732 4676 4831 4468 4379 4286 4542 4287 3615 2703 1608 1593 817 912 2414 1757 1398 648 577 667 443 376 284 68 108
0 0 8 45 63 66 83 98 146 187 52 108 88 72 135 681 675 269 336 432 696 1178 2192 2490 3449 4502 4653 4525 4686 4734 4757 2903 2619 2952 1838 759 568 834 3048 1848 1285 624 763 706 567 198 155 225 98
0 0 0 38 85 105 82 71 46 47 74 105 48 17 41 471 718 424 317 259 397 1163 2140 2686 3311 4281 4518 4413 4835 4754 4677 4472 2748 3429 3663 1831 1888 608 1259 1638 1165 1067 614 803 442 192 299 273 290
0 0 0 26 145 143 95 86 75 108 41 38 46 16 28 59 476 593 392 413 712 697 1591 2441 3157 4248 4404 4355 4590 4355 4501 4585 4465 4425 4256 3282 2661 1671 2252 1387 1011 995 1037 989 676 608 728 362 336
0 0 2 5 46 90 110 101 70 98 61 40 8 8 38 50 274 660 586 510 800 641 925 1820 2875 3817 4237 4225 4337 4321 4302 3924 4464 3965 4025 3677 3128 2669 1958 1765 1700 1303 1188 952 1364 861 649 608 897
0 0 0 150 24 38 96 88 48 23 40 26 43 60 61 39 80 291 632 644 750 1338 983 1305 1909 2382 3515 3786 4414 4384 4436 4034 3945 4150 3978 3938 3227 2895 2275 2092 1796 1290 781 523 588 978 314 705 677

GFSSGP_con_sbcape_024.txt.gz
CAPE
724 629 896 239 353 262 79 116 214 129 80 78 43 216 18 125 14 56 74 315 338 384 494 563 1267 1170 1193 1708 1867 2143 2388 2582 2638 2732 2894 2879 2865 2759 2730 2638 2538 2277 2144 1760 1728 1756 1755 1606 1565
565 678 765 294 290 65 206 276 143 108 58 203 162 135 20 10 37 156 289 342 231 220 192 269 1726 1456 1519 2047 2050 1917 1985 1989 2430 2556 2736 2816 2688 2579 2226 1942 1925 1840 1735 1679 1775 1809 1775 1731 1601
740 822 1178 940 90 88 145 199 88 255 148 172 192 165 106 107 130 222 178 129 179 232 654 1112 1495 1914 1794 2016 2128 2122 2108 2080 2341 2380 2484 2593 2310 1790 1829 1849 1745 1697 1682 1718 1751 1823 1825 1790 1730
1477 1503 1610 1212 147 5 211 102 111 53 258 198 152 265 214 259 251 269 191 214 387 697 451 1383 1712 1761 1929 2263 2189 2316 2203 2022 2167 2360 2337 1944 1752 1665 1865 1716 1604 1609 1642 1695 1877 1874 1711 1792 1651
2027 1141 1123 159 188 286 155 207 75 67 311 303 240 395 541 404 180 311 319 468 630 677 737 1168 2128 2182 2120 2103 2261 2182 1778 1792 2141 2278 1890 1891 1771 1800 1800 1446 1417 1557 1758 1829 2131 1810 1615 1553 1595
1351 799 715 11 0 101 69 227 44 89 252 407 290 452 451 581 692 561 513 634 736 799 803 1104 2087 2154 2040 2401 2133 1973 1606 1432 1742 1889 1870 1944 1872 1767 1540 1354 1424 1616 1795 1963 1935 1688 1524 1540 1239
831 763 199 1 0 9 11 24 84 35 189 285 549 501 448 561 659 611 574 834 850 904 1179 1604 1487 1987 2067 2284 1920 1695 1635 1721 1798 1739 1780 1892 1852 1731 1502 1322 1393 1541 1729 1725 1764 1566 1365 1444 1226
529 570 273 10 0 0 0 28 0 3 194 256 399 359 530 758 916 599 874 775 791 899 1305 1824 1952 2034 2036 1631 1762 1646 1639 1584 1547 1548 1630 1679 1784 1712 1400 1663 1922 1590 1560 1596 1589 1605 1320 1396 1436
140 35 227 25 2 0 0 0 59 61 33 294 384 342 571 393 532 970 852 879 904 979 1124 1207 1498 2248 2203 1700 1269 1580 1496 1460 1420 1541 1824 2217 1459 1667 1971 2273 1699 1656 1644 1788 1626 1738 1894 1913 2128
2 13 39 0 56 0 3 0 0 0 0 55 563 517 454 403 479 630 1074 1082 858 1042 794 1239 944 1092 1964 1032 1936 1846 1337 1251 1450 1677 2535 1983 1260 1436 2155 1719 1793 1483 1533 1710 1836 2162 1573 2288 2071
12 0 67 150 8 0 0 0 0 7 2 25 566 551 478 432 433 279 980 812 1151 1322 1076 1211 1504 1597 1135 1879 1715 1645 1624 1592 1790 3051 2053 2960 2299 2085 1535 1814 3168 1744 2544 2120 1981 1004 158 1127 2259
56 65 21 41 48 84 3 1 0 41 20 33 531 650 616 471 300 252 792 649 1390 1171 1311 1029 2104 2543 1864 1768 1484 1722 1743 1793 1555 2116 2825 3022 3101 2620 2371 1759 2847 2590 2017 2456 2232 876 1049 2174 2339
25 80 20 19 0 29 17 6 0 15 22 40 338 501 584 507 348 261 376 660 1305 1267 1315 1851 2315 3037 3477 3041 2399 1823 2056 1115 1801 2127 2426 2289 2666 1902 2508 2923 2430 3002 2715 1986 2004 2459 2086 1271 2042
1 6 8 7 2 1 47 36 0 0 14 65 204 340 390 434 405 544 583 793 1325 1242 1134 1701 1972 2755 3001 3257 3379 3893 2748 2620 988 1728 2328 2983 2756 3393 2424 2572 2570 3025 2116 2243 2850 3339 3098 2994 2722
0 2 0 0 0 5 42 47 26 0 6 66 139 284 326 376 461 631 684 1000 1219 1178 1283 1613 1789 2474 2840 3266 3223 3199 2794 1537 2314 1774 2585 3120 3437 3063 3514 3222 3024 2681 2762 2331 3083 2935 2982 2602 2203
0 0 0 0 0 0 1 132 3 0 0 29 207 239 333 314 272 611 716 1000 1117 1169 1881 2066 957 1964 2665 3047 3424 2318 1791 2032 2126 2187 1687 2070 3290 2822 3047 2937 2539 1926 1992 2396 1934 2358 2654 1701 755
0 0 0 9 0 4 0 77 120 133 0 17 122 207 221 439 427 599 536 915 1126 1447 2099 1745 2138 1892 2632 3028 2947 2931 2612 2323 3128 1823 1963 2413 3254 3074 3202 2741 2160 2652 2356 2538 1947 2201 1396 1120 555
0 0 0 30 12 3 15 114 47 74 20 22 56 188 282 214 265 645 629 659 899 1235 1971 2236 2085 3116 2960 2665 3160 3328 2431 3304 1966 2904 2785 2330 2932 3203 2131 2575 2375 2391 2874 2566 2229 1775 1405 705 280
0 0 0 7 1 6 161 201 29 127 115 0 62 73 82 222 394 610 652 768 901 1257 2043 2284 2897 3507 3561 3371 2591 2587 2500 2615 2446 2727 1778 2503 3229 3192 2731 2497 2627 3018 2552 2153 1773 1296 435 748 685
0 0 23 22 52 118 18 453 262 357 257 49 1 44 54 103 304 646 847 878 922 1395 1811 2629 2715 4054 3248 3049 3044 2543 2199 2330 1953 2124 3218 2769 3074 3204 2876 2552 2722 2688 1827 1684 1146 615 520 497 1072
0 0 0 16 23 18 26 29 66 261 277 230 117 37 26 59 82 626 870 888 978 1400 2172 2571 2838 3574 2972 3566 2908 2945 3158 3743 2610 2801 2389 2837 3101 3153 2833 3002 2660 2612 1769 1528 1248 896 718 493 1047
0 0 0 0 29 3 72 80 268 147 459 172 109 96 60 65 98 140 633 1089 1003 1407 2152 2846 3145 3180 3813 2900 3216 3099 2358 2466 2182 2655 2416 2904 2696 2720 3001 3285 2407 2288 1365 1587 1174 1041 600 824 485
0 0 0 0 0 120 137 29 115 236 405 403 146 106 69 122 59 51 364 788 967 1432 1880 2897 3383 3678 3518 3692 3424 3492 3413 1752 2706 2461 3098 3131 2817 2537 2256 2203 2599 1660 609 1856 1075 963 742 1124 762
0 0 0 0 1 48 83 41 195 248 77 89 279 226 441 242 247 167 218 670 1036 1254 1708 2191 3622 3758 3698 3844 3633 3765 3317 2660 2766 3268 2385 2050 1925 2239 2331 2462 1908 1750 1050 1687 1184 851 670 877 1031
0 0 0 0 49 9 81 184 246 180 137 81 29 66 499 578 390 402 312 559 1153 1266 1569 2268 3552 3871 3931 4036 4009 3513 3941 3537 3520 4303 2245 1648 1280 1261 2097 2515 1910 1596 1266 1888 1545 1183 1109 843 738
0 0 0 2 13 21 23 39 236 261 62 5 12 1 263 489 635 640 733 587 1198 1263 1689 2149 3452 3811 4102 3840 4248 4153 3723 3950 3285 3325 2922 1920 1678 1722 1855 2039 1750 2027 1369 1513 1128 1210 704 716 647
0 0 0 0 2 40 43 44 43 216 46 59 2 13 59 532 761 699 893 919 1019 1398 1670 2026 3427 3795 4089 4206 4108 4331 3943 3545 3243 3251 3054 2802 1943 2943 1803 1871 1842 1457 1516 1413 1166 456 541 683 1095
0 0 0 0 4 35 31 97 127 385 54 54 57 66 49 325 580 761 542 852 1089 1447 1749 2188 2810 3816 4144 4235 4199 4143 4198 3736 3288 3397 3504 2365 3355 2805 2361 2113 1783 1327 1284 1377 981 663 1034 594 914
0 0 0 0 0 7 44 54 165 393 477 293 159 81 70 30 450 790 676 699 956 1177 1599 2061 2316 3661 4105 4140 4157 4249 4197 4110 3566 3343 3231 2965 2965 2804 2330 2062 1607 1345 1252 1379 989 834 1191 1032 956
0 0 0 0 0 0 31 51 60 136 341 437 143 100 60 49 63 391 855 806 838 903 1259 1816 2260 2563 3634 3972 4093 4250 4212 4153 4028 3338 3641 3454 3153 3256 2721 1971 1607 1450 1130 1143 906 690 643 777 910

GFSSGP_con_sbcape_027.txt.gz
CAPE
838 654 463 40 369 68 39 107 67 16 23 39 28 54 18 98 0 0 34 96 146 181 301 469 1193 1398 1380 2224 2449 2338 2477 2751 3027 2959 2927 2831 2445 2454 2731 2301 2000 1937 1775 1744 1782 1785 1548 1497 1500
511 656 1 0 107 44 138 158 185 117 118 128 174 48 0 16 16 62 118 189 237 182 242 662 1497 1821 1645 2030 2347 2434 2155 2065 2881 2854 2941 2782 2485 2570 2025 1958 1841 1764 1734 1785 1791 1706 1632 1543 1533
426 71 0 0 49 100 160 181 131 287 253 103 104 66 34 74 100 96 103 178 160 71 397 923 1662 2094 1938 1817 2216 2337 2271 2070 2318 2680 2594 2406 1961 1933 1907 1768 1746 1764 1727 1721 1776 1716 1745 1703 1489
510 636 535 600 75 131 170 88 219 210 235 243 150 45 74 126 85 155 107 109 250 484 907 1835 2066 1646 1878 1937 2327 1971 1981 2126 2556 2842 2612 2183 1792 1890 1744 1658 1678 1679 1764 1911 1876 1601 1614 1678 1439
810 949 621 964 121 119 64 78 209 177 329 203 193 187 104 103 111 68 98 353 188 563 1112 1566 2329 2460 2342 2095 2203 2061 1830 1879 2783 2791 2565 2205 1877 1881 1614 1476 1535 1635 1768 1980 1962 1577 1512 1482 1543
1147 1147 533 299 114 152 69 47 158 275 446 544 370 119 165 116 78 195 317 534 381 638 1014 1413 2118 2377 2421 2179 2058 1867 1707 1773 2735 2670 2627 2536 2269 1977 1872 1437 1478 1612 1748 1827 1782 1535 1534 1447 1263
1419 200 342 188 165 45 118 65 324 305 363 356 428 176 134 195 156 265 423 458 421 688 833 1289 1420 1753 2374 2649 1948 1753 1821 1890 2455 2405 2375 2256 1850 1603 1569 1496 1467 1504 1531 1586 1684 1559 1480 1570 1417
180 171 276 107 8 10 79 52 311 304 401 338 533 610 414 394 365 363 467 513 616 769 1001 1136 1302 1516 1643 1680 1746 1688 1790 1832 1844 1761 1725 1746 1823 1708 1580 1841 1787 1620 1542 1531 1536 1741 1796 2055 1856
61 40 47 36 1 1 3 62 204 444 446 388 322 625 542 537 375 456 544 649 787 1109 1019 1087 1358 1379 1245 1140 1379 1789 1755 1887 1886 1661 2018 2254 1464 593 1820 1716 2179 1705 1653 1871 1651 2289 2254 2607 2287
77 2 1 17 6 0 18 86 97 218 308 330 324 455 540 441 481 600 478 669 705 751 1064 1145 1177 1371 975 1076 1090 1083 1176 1175 1086 1129 1128 1655 797 776 1251 1984 2343 1730 1639 1817 1790 2018 69 1443 1063
27 10 4 17 29 3 0 0 0 3 267 321 366 369 564 656 615 555 536 579 545 778 891 974 1267 1391 1043 761 791 882 898 851 820 780 999 1322 1412 710 1264 1465 1797 614 1998 1054 1618 1470 170 437 757
0 13 0 0 8 7 8 0 0 0 22 374 314 113 147 693 633 623 595 501 501 431 649 574 413 963 818 884 696 925 956 869 854 1131 1744 1489 1075 791 1242 1561 1447 1491 1706 1572 1402 782 753 732 1329
3 34 2 12 18 44 9 0 2 11 420 453 363 200 196 96 579 709 691 658 652 548 716 839 875 1033 1038 890 499 827 1024 1189 1025 1254 1485 939 836 1382 1655 1423 1338 1544 1260 1416 887 1288 1442 1199 836
9 98 52 0 27 91 45 5 6 26 465 537 487 305 279 100 56 445 393 847 692 583 830 1138 1100 1451 848 1485 1698 2036 1434 773 1107 1353 1202 1313 1361 1651 1442 1903 1632 1554 1401 1387 1754 1657 1625 1657 1686
0 1 63 69 3 86 59 0 2 7 261 454 463 387 333 257 113 54 627 634 384 411 644 1103 1006 1655 1508 1463 1834 1423 1496 680 628 1547 1591 1429 1485 1572 1542 1573 1607 1607 1597 1596 1586 1571 1619 1722 1580
0 0 0 0 0 2 30 0 0 1 89 234 286 292 335 255 164 158 372 665 387 410 1103 1288 1201 1131 1159 1544 1947 1203 798 952 1356 1229 1379 1706 1785 1654 1533 1401 1446 1580 1549 1498 1052 918 1134 682 125
0 0 0 0 0 0 10 1 0 0 32 102 141 153 178 174 145 218 354 486 549 327 901 831 1095 1111 1197 1549 2034 1515 1235 1636 1189 993 1090 1193 1883 1731 1457 1694 1690 1594 1157 1149 1038 610 729 0 0
0 0 0 0 4 0 0 4 1 0 0 59 106 57 94 66 96 233 228 433 634 469 1003 831 849 1365 1286 1754 1708 1760 1492 1828 1434 957 1297 1477 1864 1870 1445 1323 1326 1128 1180 1117 581 669 53 0 1
0 0 0 0 13 0 17 2 0 0 0 0 69 28 62 73 46 142 152 457 532 783 1235 756 1109 1616 1471 1630 1698 1753 1516 1663 1625 1652 1707 1475 1655 1670 1326 1446 1392 1405 1212 695 894 4 0 0 27
0 0 0 0 1 23 83 11 0 0 0 0 0 23 32 56 28 138 154 229 491 719 1076 895 1074 2149 1525 1604 1522 1504 1086 1406 1363 1149 1346 1079 1860 1640 1395 1154 1208 1421 1346 745 0 1 0 0 31
0 0 0 0 3 6 64 159 0 0 0 3 0 6 33 43 45 142 150 193 327 561 1104 1180 1414 2128 1862 1748 1655 1640 1518 1578 1728 1319 1459 1954 1884 1894 1575 1252 1314 1162 682 5 0 0 1 0 54
0 0 0 0 0 0 51 67 24 1 11 6 0 0 0 24 58 85 197 240 316 668 1093 1079 1492 2247 1616 1910 1421 1364 1314 1247 1316 1656 1139 1560 1793 1752 1565 1477 1087 486 159 62 4 1 13 4 0
0 0 0 0 0 3 0 0 21 47 56 43 0 0 0 0 16 97 286 215 387 651 973 1554 1354 2214 1551 1474 1688 1434 1482 1132 928 739 1455 2008 1602 1341 1520 1663 816 33 154 209 0 0 0 68 97
0 0 0 0 0 0 0 1 0 10 73 59 46 14 0 0 0 35 134 333 342 708 1329 1693 1553 1545 2236 1229 1635 1812 1928 1333 476 1437 1635 1539 1068 1074 1247 1071 274 9 55 53 17 121 23 15 40
0 0 0 0 0 0 5 0 0 18 46 124 129 43 18 0 0 0 113 374 371 668 1144 1804 1774 1796 2027 2217 2063 2089 2204 1763 1396 1219 811 1009 692 745 733 647 272 23 104 140 76 38 15 5 12
0 0 0 0 0 0 0 1 2 27 33 163 38 8 0 26 0 0 0 195 483 505 1071 2109 2032 1985 2328 2253 2169 2068 1997 2669 1510 1760 1008 262 702 512 546 492 338 108 2 434 188 53 49 61 0
0 0 0 0 0 0 0 0 0 2 31 15 13 2 0 0 53 2 2 61 399 505 1072 1342 2373 2235 2408 2627 2447 2395 2018 2032 2721 1909 1801 812 374 652 605 672 459 207 51 159 159 147 50 64 0
0 0 0 0 0 0 0 0 0 11 34 6 11 15 8 1 0 22 9 49 405 581 914 1382 2601 2510 2689 2250 2824 2926 2616 2221 2245 2196 1750 1928 823 1198 776 1011 582 687 189 202 250 82 247 136 158
0 0 0 0 0 0 0 0 0 21 75 24 7 16 6 0 85 43 96 63 522 664 881 1340 2393 2615 2882 2792 2527 2849 3123 2740 2160 2389 1968 1496 1548 1198 936 1022 850 522 569 424 330 110 110 291 52
0 0 0 0 0 0 0 0 0 0 156 84 17 6 0 0 0 48 252 317 485 728 860 1299 2607 2643 2899 3095 2994 2741 2912 3086 2596 2124 2058 2077 1333 1522 1334 1110 1012 590 342 551 340 150 262 256 265

GFSSGP_con_sbcape_030.txt.gz
CAPE
387 434 272 1 227 25 24 64 1 3 4 1 0 41 0 11 0 0 0 33 51 91 253 505 1194 1637 1912 2318 2671 2601 2488 2434 2925 2866 2442 1941 1983 2091 2099 2025 2059 1773 1743 1853 1902 1770 1618 1633 1607
586 401 19 27 108 37 74 60 3 63 24 31 4 9 18 3 13 44 43 23 93 177 267 547 1331 1761 1877 2149 2523 2610 2287 1949 2912 2765 2523 2199 2179 2084 1947 1865 1785 1763 1844 1891 1805 1771 1697 1612 1524
612 49 128 10 16 24 89 213 225 152 77 42 34 10 0 14 3 14 36 40 31 184 432 841 1896 1994 1918 2019 2312 2531 2479 2110 2507 2247 1946 1952 2012 1941 1779 1751 1754 1795 1821 1846 1892 1816 1812 1670 1430
403 333 103 161 163 57 94 408 362 216 128 47 1 46 54 82 96 86 170 86 156 358 624 1544 1995 1349 1771 1923 2117 1877 1764 1833 2226 2098 1947 1835 1933 1794 1690 1703 1725 1815 1901 2089 1697 1571 1688 1663 1465
770 589 311 293 128 79 141 386 420 203 169 79 37 61 38 60 127 202 191 109 251 536 1059 1346 2121 2111 2025 2043 1773 1842 1558 1814 2148 2085 1855 1798 1901 1721 1557 1588 1684 1818 1823 2168 1780 1536 1463 1564 1537
762 387 116 12 89 94 160 433 321 266 267 141 98 100 52 135 175 139 187 302 463 937 1337 1571 2154 2360 2165 1730 1566 1616 1554 1988 2070 2117 1973 1875 1913 1673 1483 1479 1528 1679 1804 1803 1808 1496 1535 1403 1304
37 155 157 33 55 214 297 406 307 466 298 191 133 84 97 59 34 273 207 408 600 1052 1235 1303 1417 1455 1946 2526 1647 1499 1568 1958 2018 2080 2048 1942 1807 1703 1564 1442 1500 1558 1616 1654 1722 1567 1425 1548 1412
427 277 152 52 6 45 289 412 498 475 427 196 170 154 107 78 175 379 339 437 634 825 1119 1113 1197 1477 1875 1875 1784 1514 1587 1878 1982 1884 1950 1972 1835 1725 1620 1947 1905 1817 1634 1587 1591 1700 1868 1835 1502
112 50 5 4 6 43 273 402 492 402 387 173 376 213 140 145 236 370 389 474 581 823 1021 1093 1174 1411 1282 1198 1318 1777 1709 1887 1806 1695 1739 2189 1496 1188 1403 1853 1943 1988 1817 1910 1732 1837 1562 1935 1701
37 13 44 8 0 0 140 329 392 433 481 437 388 293 236 213 312 403 480 594 768 774 920 1003 1155 1149 907 1335 1035 1064 1159 1376 1243 1241 1151 1644 1262 428 769 1737 2213 1893 1818 1972 1865 1945 633 391 794
66 38 22 13 16 0 259 364 354 420 438 390 426 469 412 362 350 509 651 719 896 762 964 1051 1106 1008 788 997 786 697 739 754 701 638 632 1013 1195 708 1273 1380 1622 649 1295 873 1690 1462 640 675 782
4 1 1 6 18 0 277 362 408 350 345 322 504 579 451 406 519 614 689 714 716 867 877 874 1042 1031 612 384 727 519 559 509 436 371 474 801 862 955 850 1061 748 997 916 1411 1316 888 695 822 923
0 0 16 20 13 4 0 18 406 240 289 403 571 614 512 468 603 538 651 601 637 883 921 877 991 1047 711 474 368 336 579 581 486 457 677 868 530 698 815 1024 1070 1079 1269 1208 1016 782 803 990 824
0 0 9 11 0 8 0 5 13 330 392 402 557 571 487 623 576 479 450 456 641 660 652 658 436 919 681 657 193 320 644 694 690 714 879 928 529 1050 1086 1296 1005 1308 972 1034 1242 996 1228 1199 1541
0 0 0 5 0 2 0 26 354 466 388 195 86 383 644 637 497 536 453 496 476 311 555 457 392 640 639 606 415 771 1088 967 789 775 884 920 898 1213 1054 1132 1153 1152 1187 1242 1138 839 1023 951 755
0 0 0 0 0 0 0 39 458 444 373 190 135 135 129 398 556 545 599 470 429 422 614 732 752 854 622 828 1008 770 558 318 533 807 900 986 1018 1117 1163 1092 1014 1365 1368 1273 712 727 313 0 0
0 0 0 0 0 3 3 0 339 473 445 349 260 203 229 84 41 416 549 535 475 315 554 832 775 1071 788 784 1072 667 473 474 504 739 849 910 1288 1257 999 952 1262 1125 1154 930 863 352 153 0 0
0 0 0 0 0 0 0 0 34 471 464 454 397 323 244 190 135 52 553 499 203 190 584 820 630 764 668 763 1165 832 630 919 947 387 626 518 1356 1343 974 811 1149 845 793 752 275 292 0 0 0
0 0 0 0 0 5 1 0 0 183 292 391 345 351 281 205 155 41 532 485 264 516 798 851 777 600 468 950 1102 1068 990 1025 1223 679 934 1057 1165 1546 1053 686 954 799 763 546 262 0 0 0 0
0 0 0 0 0 0 4 0 0 3 95 201 203 205 199 143 92 67 216 430 347 374 669 598 787 793 666 862 916 992 901 1136 1023 883 1303 1150 992 1290 947 849 802 948 951 327 0 0 0 0 0
0 0 0 0 0 0 13 22 0 0 3 12 55 100 134 69 31 58 89 276 407 203 590 491 686 963 836 1013 995 943 712 912 1051 932 997 829 1158 1187 1046 709 623 780 438 0 0 0 0 0 0
0 0 0 0 0 0 5 1 0 0 0 0 0 18 64 50 15 21 81 177 272 332 454 382 524 1290 1035 1077 1147 1121 1101 965 833 1124 1225 991 1318 1344 1122 768 614 180 96 0 0 0 0 0 0
0 0 0 0 0 0 0 0 0 5 0 0 0 13 35 32 30 0 52 73 250 255 470 584 546 1373 1361 1244 1136 1070 900 801 790 674 1024 935 1200 1182 1153 887 406 0 0 0 0 0 7 0 0
0 0 0 0 0 0 0 0 0 0 0 0 0 0 24 8 12 0 39 46 86 278 519 654 726 1202 1373 1357 1161 1055 938 771 680 534 775 1008 1050 875 1114 901 115 0 0 0 0 0 0 0 0
0 0 0 0 0 0 0 0 0 0 0 2 0 0 0 0 0 0 9 27 45 194 473 752 816 1125 1161 1444 1152 1013 935 871 595 316 827 1080 822 525 776 607 7 0 0 0 0 0 0 0 0
0 0 0 0 0 0 0 0 0 0 0 4 0 0 0 0 0 1 0 33 37 166 554 951 819 929 1184 976 1379 1324 1155 1158 1067 440 693 974 923 553 441 208 7 0 0 0 0 0 0 0 0
0 0 0 0 0 0 0 0 0 0 0 0 12 3 0 0 0 0 25 57 66 230 593 954 957 839 1358 1295 1032 1072 1381 1506 1585 1016 386 436 343 224 344 131 42 0 1 33 8 0 0 2 0
0 0 0 0 0 0 0 0 0 0 0 0 39 28 1 0 0 0 0 23 142 152 513 996 1121 1035 1168 1566 1497 1434 1227 1355 1636 1175 826 240 173 308 209 266 85 30 0 72 23 0 0 0 0
0 0 0 0 0 0 0 0 0 0 0 0 8 17 28 3 0 0 0 2 113 258 575 1272 1325 1199 1413 1536 1612 1616 1623 1325 1245 1785 1312 922 190 340 217 431 168 112 35 4 46 3 14 1 3
0 0 0 0 0 0 0 0 0 0 0 0 0 14 22 19 0 0 4 0 36 290 448 1011 1774 1533 1627 1861 1886 1784 1795 1764 1528 1387 1812 1210 1052 357 480 418 354 267 133 51 94 24 26 39 3

GFSSGP_con_sbcape_033.txt.gz
CAPE
389 304 159 23 104 56 17 40 0 2 3 4 11 9 0 0 0 0 1 26 100 184 369 576 1240 1443 1677 1804 2365 2274 2214 1967 2145 2002 1923 1896 1890 1963 1908 1971 1796 1771 1797 1833 1863 1673 1713 1613 1461
369 352 6 0 5 3 46 26 0 9 0 2 15 14 1 6 8 12 10 24 77 199 248 499 1513 1718 1661 1964 2268 2340 2098 2111 2079 2031 2069 2110 2041 1950 1861 1756 1725 1727 1785 1644 1725 1716 1620 1612 1564
538 131 3 16 0 5 44 94 105 27 33 40 2 1 0 5 8 6 0 30 122 190 383 739 1400 2014 1703 1830 2207 2421 2429 2089 2055 2121 2084 1963 1894 1731 1670 1628 1713 1695 1747 1953 1697 1799 1731 1600 1390
152 84 67 210 120 105 72 259 134 77 77 15 5 24 41 8 8 29 8 47 95 297 562 1078 1505 1500 1551 1620 1835 2018 1960 1950 1959 1823 1868 1933 1770 1671 1660 1680 1783 1764 2025 1883 1563 1541 1655 1606 1469
865 555 291 91 13 84 102 235 160 130 105 38 27 35 71 77 66 34 6 54 131 368 654 974 1867 1984 1791 1647 1624 1605 1794 1989 2014 1913 1839 1918 1743 1623 1626 1660 1796 1785 1952 1954 1685 1516 1407 1563 1481
31 455 133 64 74 73 212 324 246 133 104 61 41 35 66 125 104 116 82 85 285 620 958 1081 1482 1621 1647 1540 1604 1531 1656 1982 2024 1948 1866 1954 1847 1581 1548 1597 1666 1765 1876 1768 1747 1501 1536 1321 1353
7 29 61 21 79 231 229 316 209 171 91 66 47 26 140 187 225 195 136 163 411 1062 1237 1179 1009 1095 1454 1726 1524 1520 1749 1963 2071 2085 1956 1963 1895 1672 1632 1520 1548 1603 1626 1700 1689 1581 1477 1543 1482
139 106 32 63 114 328 431 307 287 164 250 121 58 37 111 218 217 185 280 284 760 1168 1162 1143 1003 1014 1341 1427 1507 1496 1736 1987 2054 2063 2048 1969 1822 1693 1693 1799 1736 1816 1679 1620 1642 1743 1481 1496 1753
170 2 0 6 114 224 491 442 394 318 192 112 147 58 75 122 256 232 329 377 818 1032 1026 995 1089 1205 1486 1340 1205 1678 1655 1941 2007 1825 1958 2230 1413 1305 1487 1700 1921 1623 1875 1790 1686 1712 1278 1764 2055
0 0 0 0 16 306 486 450 390 322 178 321 152 105 122 245 354 313 315 370 503 820 1005 1012 1016 1205 1189 1399 1116 1127 1002 1462 1556 1341 1221 1491 1215 929 496 1339 1972 1740 1738 1666 1914 1939 799 732 952
21 191 7 4 0 327 437 436 373 333 216 302 157 118 178 287 458 410 395 406 403 694 909 989 1078 1102 994 1165 756 819 854 924 905 773 739 801 1102 618 856 1204 1236 772 1196 1142 1497 1412 567 488 665
27 21 3 0 38 221 421 427 349 304 233 262 185 144 207 284 422 456 469 510 530 591 749 867 1065 993 669 595 724 699 597 489 483 375 337 353 624 703 697 820 877 780 729 888 991 1052 579 665 760
5 0 0 1 0 185 421 441 362 443 415 316 317 227 220 266 404 493 555 601 708 578 681 802 927 892 565 292 451 264 349 410 311 206 188 371 583 648 510 734 757 756 1094 1067 1157 637 667 877 892
0 0 0 0 0 216 501 487 438 465 393 566 459 414 324 308 396 478 593 626 647 612 663 726 784 751 547 227 168 150 167 295 301 272 299 633 565 410 731 695 914 863 751 991 805 851 921 917 1266
0 0 0 0 5 5 30 45 425 367 335 609 550 473 443 363 424 546 621 596 603 636 674 639 699 715 691 369 179 75 107 382 692 590 490 711 601 720 811 848 756 773 778 849 1042 603 785 287 105
0 0 0 0 0 0 0 0 66 336 420 604 631 550 476 393 552 532 568 570 534 615 609 609 721 594 651 487 255 164 254 684 818 578 559 682 660 813 699 655 692 810 1077 990 560 471 12 0 0
0 0 0 0 0 0 0 0 290 323 410 607 650 621 526 467 562 502 476 443 508 456 313 368 436 346 564 454 486 354 627 237 220 368 555 684 799 920 907 575 650 815 1014 906 647 226 5 0 0
0 0 0 0 0 0 0 0 359 350 304 357 537 621 590 590 575 492 474 400 408 256 194 314 333 379 415 521 642 418 228 212 362 483 618 626 829 1075 890 692 897 853 669 588 128 56 0 0 0
0 0 0 0 0 0 0 0 361 288 246 184 147 275 369 512 565 505 502 487 377 268 184 434 412 556 469 496 681 566 446 400 625 441 477 503 952 1158 962 527 738 463 551 491 73 0 0 0 0
0 0 0 0 0 0 0 0 250 272 317 259 168 124 145 112 85 133 296 502 423 132 119 333 516 505 544 519 698 685 527 497 501 718 392 831 979 1173 899 553 704 637 551 213 69 0 0 0 0
0 0 0 0 0 0 0 0 37 291 374 359 298 209 141 115 89 1 195 404 409 116 213 389 498 365 479 463 390 528 422 614 687 602 707 932 828 1136 969 621 540 591 587 113 0 0 0 0 0
0 0 0 0 0 0 0 0 0 38 215 234 251 230 197 128 113 69 93 317 326 144 277 389 471 466 346 300 508 547 495 533 613 792 752 631 783 1036 842 605 400 481 282 3 0 0 0 0 0
0 0 0 0 0 0 0 0 0 0 0 4 32 70 90 103 106 78 11 150 280 210 262 390 373 522 503 493 575 586 519 501 371 493 820 756 753 903 950 688 409 128 23 0 0 0 0 0 0
0 0 0 0 0 0 0 0 0 0 0 0 0 17 24 21 40 35 13 29 171 246 143 404 280 583 607 576 674 692 644 514 383 266 562 553 687 779 887 722 312 0 0 0 0 0 0 0 0
0 0 0 0 0 0 0 0 0 0 0 0 0 0 3 1 6 2 2 22 71 195 190 365 285 621 781 742 766 752 661 490 465 296 379 526 622 518 758 713 267 0 0 0 0 0 0 0 0
0 0 0 0 0 0 0 0 0 0 0 0 0 0 0 0 0 0 0 0 17 87 146 299 333 540 897 958 870 799 697 615 528 271 235 502 708 734 692 717 236 0 0 0 0 0 0 0 0
0 0 0 0 0 0 0 0 0 0 0 0 0 0 0 0 0 0 1 0 1 11 108 309 431 481 872 986 961 872 780 717 596 279 198 428 649 735 366 558 210 0 0 0 0 0 0 0 0
0 0 0 0 0 0 0 0 0 0 0 0 0 0 0 0 0 1 0 0 0 8 61 218 461 542 734 977 1024 978 881 793 693 555 332 392 404 471 347 320 119 0 0 0 0 0 0 0 0
0 0 0 0 0 0 0 0 0 0 0 0 0 0 0 0 0 0 3 0 0 15 24 239 522 557 709 890 923 1015 1057 1022 1008 888 670 385 165 58 164 294 116 22 0 0 0 0 0 0 0
0 0 0 0 0 0 0 0 0 0 0 0 0 0 0 0 0 0 0 0 1 14 37 314 573 640 614 970 948 847 839 826 990 1283 1062 636 233 117 73 227 117 73 7 0 8 0 0 0 0

GFSSGP_con_sbcape_036.txt.gz
CAPE
373 403 182 107 213 26 34 47 0 9 1 21 4 0 0 3 0 0 14 39 69 61 298 516 1474 1697 1674 2278 2312 2056 2099 2037 2325 2346 2286 1967 1920 1871 1887 1734 1781 1799 1786 1884 1643 1753 1530 1561 1549
316 288 12 0 6 21 14 18 2 9 12 8 14 8 6 15 2 11 19 112 143 129 228 378 1714 2029 1713 1886 2292 2304 1796 1774 1877 2010 2095 2001 1945 1975 1737 1653 1611 1836 1606 1688 1700 1666 1615 1499 1327
459 181 0 10 2 25 40 44 64 22 15 21 0 4 0 20 8 5 0 66 176 217 274 600 1508 2171 1543 1559 2003 2264 1820 1836 1981 2112 2098 1963 1841 1739 1632 1628 1614 1627 1888 1682 1801 1806 1669 1455 1449
310 22 69 158 13 92 34 129 53 62 8 16 13 3 18 5 0 0 22 129 175 333 442 1416 1622 1529 1509 1564 1888 2096 1867 1970 1926 1952 1917 1848 1723 1639 1621 1699 1731 1843 2149 1559 1451 1602 1616 1440 1415
583 331 53 73 22 102 73 114 79 75 40 30 24 1 7 57 14 32 49 105 214 356 620 1142 2048 1943 1677 1663 1942 1990 1964 1848 1747 1806 1909 1770 1632 1630 1649 1699 1817 1833 2056 1785 1552 1395 1446 1505 1443
4 343 121 57 52 52 196 173 142 85 60 37 0 0 79 39 25 34 33 97 295 481 747 1021 1656 1740 1631 1583 1713 1763 1834 1839 1892 1770 1886 1858 1659 1549 1549 1619 1730 1801 1887 1831 1577 1494 1453 1294 1422
0 39 38 42 90 95 193 182 127 64 55 46 30 19 49 61 61 34 64 119 347 743 838 808 939 1280 1620 1571 1539 1533 1752 1845 1956 1856 1889 1921 1748 1552 1562 1546 1581 1612 1625 1745 1641 1469 1481 1474 1508
5 2 22 95 49 112 306 211 133 70 131 59 58 27 47 83 88 110 106 186 574 983 920 758 711 846 1031 1219 1497 1534 1732 1821 2019 2035 1957 1870 1808 1639 1682 1836 1692 1968 1694 1631 1628 1394 1446 1501 1681
151 5 3 45 40 200 313 262 174 135 92 91 65 48 49 200 188 162 164 306 763 1014 855 800 732 694 1067 1045 1106 1668 1678 1862 1992 1937 1949 1965 1406 1310 1593 1751 1916 1751 1737 1703 1407 1486 1264 1681 1808
0 0 5 0 28 222 330 343 234 167 82 152 65 121 161 252 223 234 192 193 378 658 884 815 820 894 1174 1385 966 1006 901 1266 1597 1414 1163 1436 1305 1033 1337 1217 2030 1688 1587 1661 1636 1563 933 1039 1297
19 166 14 0 0 267 420 413 300 214 98 127 78 155 192 253 248 242 173 151 198 510 895 912 866 951 1155 1244 848 730 685 912 1104 972 794 734 1197 811 682 1184 1226 1243 1274 1414 1284 1167 758 621 895
234 15 110 24 0 175 400 389 325 141 99 102 93 162 282 270 267 304 283 243 289 571 681 903 906 993 862 723 735 593 632 580 659 566 397 287 437 522 609 721 1060 941 1100 1126 996 1106 765 881 1001
192 59 0 13 2 216 312 361 328 238 231 123 118 195 327 355 305 313 325 276 220 497 708 803 911 1014 742 466 494 408 398 531 403 280 180 153 334 512 562 809 996 830 1006 1297 1263 931 906 993 982
0 7 0 0 0 102 330 331 372 357 184 148 139 185 249 338 389 352 384 404 257 376 485 671 813 956 636 447 183 260 210 233 211 167 123 163 359 439 386 725 1003 965 904 1113 1047 1125 989 1093 1251
0 0 0 0 0 99 293 349 410 336 289 195 183 178 200 230 346 382 420 475 468 439 379 536 650 757 537 219 73 85 111 118 230 295 193 554 630 513 565 744 706 861 1035 851 1169 783 736 67 12
0 0 0 0 0 66 305 322 343 313 350 318 212 169 170 183 301 374 448 508 553 520 462 470 651 589 450 229 73 67 0 21 158 428 464 526 699 523 705 699 784 672 978 1169 672 557 31 0 0
0 0 0 0 0 0 200 21 19 250 269 464 342 270 229 205 244 355 442 528 554 483 457 475 493 496 492 328 129 104 58 113 248 345 401 571 703 704 785 682 703 765 996 1007 839 371 46 0 0
0 0 0 0 0 0 0 0 0 257 228 410 426 334 330 287 272 379 471 527 475 461 468 445 442 379 408 400 259 165 135 155 87 187 388 537 664 919 901 750 717 855 836 750 297 104 0 0 0
0 0 0 0 0 0 0 0 134 221 263 344 415 385 342 337 293 397 438 428 376 442 286 308 319 231 215 364 338 365 392 230 216 267 475 566 654 1009 963 760 743 704 688 612 152 0 0 0 0
0 0 0 0 0 0 0 0 153 209 254 352 444 449 420 390 311 413 414 311 260 342 210 237 253 223 197 287 427 457 404 141 320 520 367 494 689 1048 963 635 606 577 492 390 130 0 0 0 0
0 0 0 0 0 0 0 0 31 214 193 192 214 409 445 418 402 394 384 323 269 254 185 173 268 227 325 253 223 145 176 328 323 386 553 476 735 1096 1178 724 551 561 514 272 27 0 0 0 0
0 0 0 0 0 0 0 0 0 109 174 142 69 85 206 217 306 171 314 255 334 250 161 141 208 287 354 284 281 432 566 680 595 406 490 656 805 785 1180 819 518 504 432 203 0 0 0 0 0
0 0 0 0 0 0 0 0 0 2 125 128 148 129 89 45 59 10 0 264 223 334 157 64 118 267 273 343 376 355 496 370 90 371 553 447 510 803 1014 752 518 369 265 130 0 0 0 0 0
0 0 0 0 0 0 0 0 0 0 77 153 112 149 170 110 43 18 0 17 139 250 148 81 167 275 264 265 349 341 377 138 166 200 475 473 491 590 836 801 507 244 179 12 0 0 0 0 0
0 0 0 0 0 0 0 0 0 0 0 17 76 46 83 133 101 56 14 0 65 129 142 93 181 257 311 257 296 365 332 229 278 170 308 345 413 495 701 780 455 52 49 21 0 0 0 0 0
0 0 0 0 0 0 0 0 0 0 0 0 1 17 11 11 31 55 34 0 0 90 142 105 205 213 306 387 371 421 443 417 376 220 235 298 458 599 783 775 659 93 7 10 0 0 0 0 0
0 0 0 0 0 0 0 0 0 0 0 0 0 0 0 0 0 3 6 11 0 12 123 75 209 177 262 486 498 489 522 548 464 312 201 269 487 624 604 808 673 85 12 0 0 0 0 0 0
0 0 0 0 0 0 0 0 0 0 0 0 0 0 0 0 0 0 0 0 0 0 57 118 151 204 269 547 616 614 609 589 530 376 253 285 354 675 536 695 662 89 0 0 0 0 0 0 0
0 0 0 0 0 0 0 0 0 0 0 0 0 0 0 0 0 0 1 5 1 0 13 66 121 210 246 622 738 759 722 673 605 505 442 302 336 499 536 569 555 184 35 0 0 0 0 0 0
0 0 0 0 0 0 0 0 0 0 0 0 0 0 0 0 0 0 0 2 1 0 1 28 74 238 303 487 779 834 804 759 665 634 671 477 343 272 444 511 457 251 82 38 6 0 0 0 0

GFSSGP_con_sbcape_042.txt.gz
CAPE
115 60 179 331 702 578 239 174 56 41 68 93 60 60 177 58 172 120 26 58 0 43 595 840 1598 1873 2128 2387 2904 2562 2189 1977 2035 1978 1998 2098 1893 1844 1813 1752 1873 1756 1758 1646 1610 1618 1459 1402 1455
342 448 383 260 800 147 134 125 100 209 232 176 114 97 161 57 109 76 340 178 21 395 573 946 1742 2220 2141 2323 2630 2498 1940 2074 1990 2102 2059 2014 1853 1836 1739 1955 1691 1848 1768 1569 1681 1606 1490 1191 1133
569 310 253 585 325 255 248 161 305 254 183 169 176 211 267 78 182 65 60 177 440 514 648 1264 1547 2156 2113 2106 2295 2507 2343 2103 2074 2010 1996 2018 1806 1706 1766 1709 1893 1571 1735 1973 1747 1664 1483 1395 1321
406 423 261 1133 284 301 261 321 328 347 257 182 216 293 128 135 178 142 268 393 481 617 846 1094 1806 1793 2122 1923 1888 1829 1964 2073 2196 1981 1859 1767 1719 1799 1846 2062 1900 1867 1565 1589 1694 1631 1521 1490 1291
680 802 743 548 200 351 401 425 376 354 304 238 185 125 88 85 229 212 293 338 530 571 866 1087 2175 2296 2082 1928 1874 1895 2069 2219 2048 1880 1738 1688 1679 1804 1869 2124 1717 2039 1750 1554 1497 1558 1523 1447 1205
1088 383 549 188 73 183 573 496 362 315 305 268 264 189 282 296 321 291 370 318 424 470 653 981 1857 1921 2142 1977 1935 1925 1976 1982 1986 1924 1783 1714 1720 1736 1745 1756 1874 1987 1815 1527 1422 1371 1324 1476 1599
892 468 232 106 107 107 568 507 451 340 384 275 312 551 442 319 350 386 332 295 339 410 493 699 1049 1581 1870 2214 1992 1923 1832 1832 1904 1957 1903 1795 1648 1636 1634 1558 1714 1693 1680 1581 1403 1337 1367 1468 1622
525 330 284 194 162 221 650 595 575 233 357 242 287 390 543 366 382 466 507 389 373 468 443 661 931 1105 1334 1745 1849 1879 1907 1942 1879 1865 1884 1772 1688 1673 1857 1846 1641 1833 1510 1478 1410 1377 1483 1664 1743
395 462 339 228 232 528 746 729 495 224 317 256 242 325 529 454 444 499 471 375 523 495 420 436 661 943 1056 988 1237 1654 1835 1869 2007 1953 1820 1622 1923 1959 1858 1346 1910 1574 1439 1313 1406 1157 1535 1786 1940
436 571 293 158 147 427 829 765 584 327 326 314 356 313 479 417 534 641 679 670 758 529 419 374 466 697 981 696 1299 1249 855 874 1190 1633 1765 1844 2117 2212 1869 1687 1675 1682 1457 1495 1389 1389 1096 1472 1474
244 393 280 131 92 358 792 861 692 374 281 371 535 512 524 481 604 655 686 768 830 599 427 336 443 754 839 672 1043 1107 829 1013 1522 2012 2049 1940 1933 2132 1929 1879 1805 2003 1587 1533 1568 1707 1386 1303 1266
234 128 423 205 36 107 660 880 869 490 231 216 580 506 554 571 624 623 628 670 753 802 617 488 641 890 884 695 796 807 413 722 835 1152 1781 1697 1761 1941 2131 1816 1772 2055 1402 1479 1468 1411 1460 1466 1330
223 32 109 191 46 22 287 737 702 736 313 259 634 580 620 646 684 656 648 612 688 748 704 731 925 1218 1204 1148 709 566 459 353 434 866 1130 1187 1454 1946 2128 2170 2020 1883 1823 1405 1432 1602 1297 903 789
5 6 1 0 21 0 143 454 738 805 654 526 648 681 682 689 749 771 678 635 655 626 598 651 809 1069 1201 1290 1284 1121 849 389 564 495 651 1247 1464 1855 1331 1763 1728 1776 1930 2048 1307 1364 1152 912 1036
0 0 0 0 0 0 106 346 722 885 886 861 749 759 689 695 742 775 716 626 624 613 666 792 996 1002 1394 1423 1538 1478 651 480 350 286 733 1056 1374 1838 2333 1908 1732 1532 1498 1646 1424 1165 1018 1483 954
0 0 0 0 0 0 39 208 664 966 1099 1048 879 757 626 676 625 617 489 484 523 569 801 945 865 974 1408 1506 1588 1209 578 364 202 153 611 1077 1382 2004 2452 1938 1818 2149 1495 1381 1658 1611 1413 861 50
0 0 0 0 0 0 61 110 241 934 1058 1144 1077 786 624 602 573 542 552 598 627 729 895 1102 1088 831 1184 1490 1417 1142 733 635 165 334 791 1217 1596 2141 2614 1897 1804 2443 2110 1235 1378 1395 1358 891 321
0 0 0 0 0 8 127 103 73 559 798 1059 1121 894 789 611 554 519 583 611 707 768 862 1086 1110 1182 1428 1349 1513 961 601 413 169 398 732 1019 1708 2324 2696 2164 2140 2601 1837 1315 1422 1480 759 307 211
0 0 0 0 0 0 29 72 93 107 580 665 1056 1033 954 795 580 537 607 538 604 804 974 1184 1231 1964 1414 1255 1082 770 452 336 218 512 1079 1988 2608 2621 2761 2646 2625 2340 1999 1670 1680 1524 1268 326 118
0 0 0 0 0 0 0 0 6 7 203 490 846 1053 1038 885 670 621 666 610 659 908 1191 1544 1544 2065 1971 1416 1360 722 436 241 346 928 1831 2501 2545 2834 2575 2577 2104 2246 1815 2054 1875 1694 571 382 105
0 0 0 0 0 0 0 0 0 0 8 125 459 880 967 968 792 699 607 683 640 876 1322 1709 2155 2106 2192 2289 1324 1128 654 715 706 1327 1969 2372 2394 2490 2771 2583 2466 2187 2250 1598 2088 2031 1269 285 0
0 0 0 0 0 0 0 9 26 13 33 171 273 726 960 1002 942 743 608 604 711 999 1368 1775 2173 2406 2304 2155 1807 2434 973 644 831 1507 1472 1779 2277 2255 2261 2766 2538 2594 2021 1872 2083 1788 1394 1248 0
0 0 0 0 0 0 0 0 0 0 1 133 367 489 913 1009 1053 906 743 602 642 889 1242 1633 2190 2806 2894 2624 2608 1869 1936 572 1085 1235 2626 3133 2879 2426 2107 2357 2554 2707 2631 2401 2463 2048 1940 1019 60
0 0 0 0 0 0 0 0 0 0 0 15 196 383 781 893 1003 1113 1031 613 757 831 1152 1557 2476 3520 3243 2657 2333 3381 2854 1806 1452 2131 1793 1759 1745 1762 2466 2219 2384 2635 2755 2673 2737 2434 2058 1565 503
0 0 0 0 0 0 0 0 0 0 0 0 17 257 593 977 969 1082 1192 1092 760 875 1189 1616 3110 3651 3271 2650 2740 2816 3209 3009 3297 2967 2065 2474 1381 1433 2520 2539 2445 2767 3115 2675 2837 2683 1976 1887 1172
0 0 0 0 0 0 0 0 0 0 0 0 0 2 440 747 963 1007 1231 1333 1249 1044 1687 2143 3079 3358 2759 2747 3517 3672 3795 2061 2059 2794 2047 1784 1417 1278 1677 2095 2495 2848 2758 2943 2975 2515 2055 1747 1686
0 0 0 0 0 0 0 0 0 0 0 0 0 0 0 435 820 959 1085 1260 1467 1597 2189 2624 3207 3596 3564 2892 3814 3824 3603 3405 2315 3209 3621 2197 2868 1468 1715 1951 2595 2619 2681 3004 2943 2420 2049 1650 1865
0 0 0 0 0 0 0 0 0 0 0 0 0 0 0 81 646 883 899 1083 1270 1506 1845 2475 3242 3586 3469 2673 3112 2958 3422 3564 3555 3642 3678 3456 3225 2735 1916 2238 2312 2577 2730 3110 3023 2432 2028 1972 1574
0 0 0 0 0 0 0 0 0 0 0 0 0 0 0 92 459 877 1015 1000 1155 1307 1379 1976 2583 3105 3012 3124 3324 3466 3429 3056 3299 2981 3608 3755 3582 3663 3019 2822 2457 2386 2894 3051 3044 2841 2014 2078 1831
0 0 0 0 0 0 0 0 0 0 0 0 0 0 0 1 119 368 477 790 1005 1259 1339 1495 1830 2109 2401 2869 3427 3474 3571 3485 3125 3510 3509 3408 3792 3813 3799 3567 3121 2656 2651 3005 3033 2823 2066 2078 1869

GFSSGP_con_sbcape_045.txt.gz
CAPE
32 35 188 171 602 1094 273 132 186 134 108 94 7 299 146 145 318 149 5 17 4 153 490 739 1542 1953 2611 2916 2860 2679 2191 2005 2009 1922 2226 1899 1908 1968 1889 1943 1828 1808 1699 1753 1725 1547 1459 1354 1332
141 186 385 692 450 263 48 113 43 122 232 94 205 260 199 379 41 17 72 0 2 258 478 856 1682 2110 2334 2602 2543 2496 1960 1942 1984 2265 1968 1873 1940 1898 1715 1646 1808 1785 1597 1748 1689 1632 1374 1152 1255
317 422 375 751 711 56 47 57 231 275 266 151 348 174 425 530 20 42 57 0 36 394 700 1367 1824 2093 2303 2137 2287 2313 1968 1973 2078 2068 2210 1883 1740 1756 1725 1737 1503 1774 1991 1827 1746 1587 1469 1296 1263
478 514 546 353 197 159 104 155 240 223 225 253 289 302 409 423 201 147 3 0 273 405 907 1409 1917 2100 1915 1902 2109 2045 1996 2030 2040 2022 1800 1786 1884 1831 1832 1942 1888 1562 1593 1638 1630 1577 1467 1301 1159
758 1118 1136 1036 218 101 103 171 348 275 343 312 403 477 502 221 281 282 36 505 474 596 963 1609 2093 2379 2058 1863 1848 1933 2038 2161 1893 1795 1704 1689 1768 1819 2021 1739 2035 1773 1569 1519 1498 1475 1434 1277 1143
1329 1055 567 265 40 54 114 190 223 322 522 407 544 474 518 274 261 264 303 461 571 709 746 1383 1860 2241 2189 1798 1792 2006 2164 1947 1852 1754 1715 1715 1729 1746 1760 1865 2047 1796 1582 1389 1361 1340 1455 1620 1581
1522 987 424 54 24 66 115 213 224 259 474 537 445 591 651 449 246 442 428 566 581 503 929 1085 1172 1776 1903 1888 1878 1844 1817 1939 1890 1810 1761 1689 1662 1661 1574 1636 1713 1680 1605 1425 1305 1336 1414 1650 1569
889 667 320 111 1 48 84 194 57 289 524 518 912 872 740 626 354 305 436 339 324 626 821 570 819 1091 1478 1669 1839 1725 1748 1803 1828 1806 1756 1722 1683 1763 1827 1679 1710 1554 1440 1433 1399 1471 1611 1755 1686
415 258 190 85 121 114 100 36 72 232 424 482 431 897 870 674 442 353 361 290 352 515 593 353 615 881 1022 1177 1539 1767 1816 1823 1778 1700 1712 1677 2054 2404 2012 2003 1783 1395 1342 1344 1530 1374 1840 1815 1948
323 161 163 220 184 111 315 123 1 135 345 371 623 1020 732 733 561 389 437 522 429 524 411 252 355 544 791 489 1175 1056 847 790 1495 1819 1676 1478 1890 1817 2131 1798 1842 1575 1459 1459 1461 1463 1550 1954 1834
219 125 79 70 112 223 254 528 229 8 315 277 688 991 693 827 650 511 680 585 743 483 271 166 346 595 598 1113 847 922 608 819 1253 1896 2027 1701 2134 2173 1769 2082 2063 2014 2032 1797 1888 1657 1576 1549 1237
112 92 152 104 79 127 242 581 500 245 39 324 528 869 756 874 941 975 642 995 902 458 284 239 486 1404 809 836 692 577 418 769 949 1474 1946 2001 1822 1582 1736 1752 2205 2889 2804 2232 2016 2169 1441 903 1854
70 61 90 336 187 75 295 485 635 385 94 203 534 802 832 846 916 942 944 938 775 531 346 354 497 1298 1066 1006 751 541 360 415 521 1168 1759 1595 1520 1915 1921 2037 1940 2414 2103 2279 1949 2081 1296 1694 796
24 43 73 216 157 50 154 444 485 665 332 357 585 770 831 857 941 997 942 797 780 586 490 474 669 1100 1184 1570 1382 757 531 317 423 602 1015 1506 1562 1416 1380 1940 2106 2384 2077 1976 1546 2082 2133 2186 1225
36 8 17 116 117 96 49 190 415 668 724 645 754 698 776 825 918 939 901 811 748 657 628 652 814 1055 1370 1327 1428 1264 684 474 407 466 879 1372 1608 1942 2117 1801 2189 2029 2093 1845 1539 1461 1314 1082 1173
1 6 51 17 0 44 26 132 219 819 951 877 862 691 681 751 825 879 865 765 756 643 687 702 627 821 1270 1756 1577 1216 614 298 303 215 682 1285 1554 1998 2655 2420 1656 2915 1668 1618 2417 1211 1537 760 312
0 0 1 31 11 47 0 83 5 746 945 1040 1010 928 613 699 759 800 857 781 722 718 741 780 796 624 1158 1923 1589 1510 1870 564 228 139 459 1888 1745 1987 2596 2846 2161 1992 2080 1219 2441 1613 1546 1364 450
0 0 2 3 56 50 34 60 273 678 778 941 1124 1068 838 563 630 679 696 640 606 702 814 1367 962 2073 2666 1768 2232 1145 651 540 307 136 546 1575 1790 2114 2700 2183 2343 2200 1593 1515 2326 1764 1629 273 20
0 0 0 28 42 31 101 76 135 437 596 487 973 1130 981 661 505 522 508 405 470 653 904 1503 1953 2803 1943 1270 1163 927 507 590 251 222 991 1262 1729 2199 2575 2356 2412 1927 2124 1996 1621 1765 990 402 1
0 0 0 0 25 47 90 145 171 135 419 517 651 1065 1005 913 606 434 487 450 461 694 1512 2267 2582 3396 2788 1615 1806 940 1005 204 158 164 1745 1580 2031 2725 2335 2505 1891 3094 2095 2077 1730 1437 911 166 1
0 0 0 0 1 60 25 89 74 88 136 402 321 1000 945 1086 931 531 482 476 417 703 1668 2107 2941 3238 2901 2479 1969 1900 1265 1013 277 396 789 1870 2256 2529 2512 2883 2427 2049 2339 2758 2232 1751 833 1329 0
0 0 0 0 7 33 0 65 54 38 73 76 182 646 973 1038 1130 832 503 479 446 663 998 2305 3216 3414 3257 3387 1941 2172 900 437 201 593 687 1762 2597 2479 2414 2624 1983 1919 1975 3503 2349 1500 1505 1245 58
0 0 0 0 0 8 6 34 67 44 31 54 117 145 692 890 1062 966 682 434 433 378 620 1576 3321 3636 3355 3369 2950 1949 1910 579 431 525 2232 2673 3707 3194 2106 2928 2896 2070 2048 3029 2011 2169 2135 1320 604
0 0 0 0 0 0 0 9 35 35 62 86 148 150 242 829 940 990 921 497 379 306 446 1163 3422 4112 3996 3974 3588 3755 2701 1988 564 1269 1389 1414 1448 2253 3395 2542 3512 3387 3187 2863 2669 2712 2322 2332 764
0 0 0 0 0 0 0 0 0 7 23 38 52 175 213 643 947 1044 976 743 712 621 974 1360 3350 4243 4300 4152 3709 3356 3806 3423 3184 3199 1652 2156 1199 1140 2875 3736 3891 2765 3765 3453 3705 3793 3054 2349 1745
0 0 0 0 0 0 0 0 0 0 1 17 39 64 217 457 884 1061 1105 1022 864 1118 1550 1990 3266 4132 4308 4152 4199 4141 4063 2376 2083 2389 1857 1497 1345 1196 3346 4116 3346 3397 3116 3486 4130 2913 2521 2983 2063
0 0 0 0 0 0 0 0 0 0 0 0 0 0 144 304 690 979 1186 1092 1009 1334 1969 2286 3245 4117 4341 4144 4372 4397 4221 3848 2572 2670 3418 2157 2931 1389 2580 2677 3164 3504 3624 4005 4193 2485 3439 3030 2737
0 0 0 0 0 0 0 0 0 0 0 0 0 0 0 223 591 898 1099 1279 1449 1215 1789 2485 2986 4082 4138 4134 4244 4274 4362 4332 3903 3704 3900 3269 3218 3872 2865 3266 2920 3372 3829 4019 4319 3054 3453 3390 2308
0 0 0 0 0 0 0 0 0 0 0 0 0 0 0 20 369 658 941 1174 1553 1395 1389 2072 2934 3503 4226 4177 4144 4285 4294 4274 4385 3970 4011 3960 4336 4555 3841 4104 3590 3699 3784 4041 4356 4015 3561 3395 3169
0 0 0 0 0 0 0 0 0 0 0 0 0 0 0 3 127 412 744 1057 1227 1664 1520 1809 2279 2607 3774 3952 4069 4226 4316 4307 4225 4256 4062 4244 4293 4456 4598 4093 4203 3947 3796 4071 4409 3830 2591 3463 3170

GFSSGP_con_sbcape_048.txt.gz
CAPE
19 0 76 110 633 478 152 82 71 105 59 12 43 105 343 306 146 34 0 0 0 213 374 1132 2010 2362 2476 2542 2527 2694 2447 2517 2222 2403 2428 2192 2121 2194 2163 1935 1851 1807 1835 1847 1597 1500 1300 1318 1282
23 37 252 496 1196 283 112 160 218 158 120 184 178 254 438 255 1 10 5 0 19 118 427 1021 2074 2545 2523 2741 2764 2530 2077 1796 2146 2529 2268 2128 2074 2072 1836 1939 1791 1702 1864 1738 1643 1484 1243 1267 1242
124 170 744 693 352 87 82 237 177 181 134 216 336 385 577 225 2 1 0 0 71 260 733 1509 1895 2397 2509 2618 2599 2471 2316 2051 2225 1982 2092 1783 1643 1842 1802 1453 1856 2009 1836 1794 1571 1506 1367 1283 1291
587 563 609 204 177 212 203 114 212 243 192 328 311 508 288 43 7 0 0 0 194 580 877 1627 1896 2050 2500 2483 2490 2446 2349 1956 2184 2240 1747 1860 1834 1889 1961 1860 1516 1538 1595 1590 1577 1471 1346 1158 1139
510 926 615 414 393 289 249 360 264 286 320 392 472 434 246 158 128 0 0 33 329 752 875 1363 2101 2359 2462 2439 2510 2375 2194 1992 1926 1830 1670 1688 1902 2064 1815 2005 1661 1547 1549 1523 1501 1473 1367 1201 1093
767 683 34 119 59 168 189 346 376 270 575 589 520 454 343 173 0 0 35 148 368 529 552 1049 1859 2309 2346 2045 2182 2138 2063 1688 1652 1677 1697 1739 1744 1814 1922 2040 1783 1605 1426 1433 1428 1460 1593 1598 1509
833 538 373 345 259 85 144 150 84 523 356 704 488 392 295 172 0 0 279 222 353 397 1190 1518 1492 1679 1984 2253 2174 2185 1736 1677 1708 1671 1625 1581 1598 1617 1628 1716 1686 1606 1440 1368 1375 1397 1493 1596 1520
582 319 56 100 2 41 96 24 20 389 583 594 685 496 421 227 43 96 165 474 428 576 1158 1662 1445 1348 1580 1537 1795 1626 1613 1702 1756 1756 1672 1537 1494 1430 1504 2145 1908 1475 1463 1437 1411 1519 1604 1662 1507
214 282 133 39 16 21 55 90 213 234 638 847 938 512 541 390 291 323 416 484 821 604 769 450 791 1577 1545 1536 1409 1601 1556 1625 1687 1656 1403 1422 1353 2055 2021 2219 2158 1433 1434 1460 1542 1576 1522 1726 1906
224 98 55 10 34 78 44 5 58 110 240 716 890 755 384 421 437 439 421 547 222 852 363 267 429 702 1333 559 1709 1754 1265 1246 1603 1798 371 438 1405 1498 1476 1768 2378 2151 1954 1672 1831 1286 1479 1837 2208
67 121 5 43 7 56 131 82 137 81 71 1039 1043 779 495 468 485 415 341 473 375 845 369 164 612 1001 877 1085 1207 1322 1144 1223 2051 2267 1271 577 1623 2455 1279 1577 1700 1795 2045 1747 1569 1715 1716 1589 1942
38 142 66 16 62 41 184 148 42 51 61 675 855 814 656 641 420 483 462 446 618 899 475 279 1098 1310 1620 1459 765 1229 809 1306 1642 2058 2649 2676 854 2100 425 947 903 1676 1515 2090 1744 2059 2226 645 1504
33 89 121 106 118 164 80 9 105 16 124 532 787 759 691 693 528 558 610 512 954 987 528 605 1326 1750 2738 2100 1274 1077 1423 1203 1153 2352 2382 2598 878 2317 919 999 900 2027 2464 1829 2200 1604 2195 1047 1366
30 64 100 149 165 160 240 315 70 22 39 420 676 638 820 662 808 955 910 854 1039 607 522 876 1428 1886 2287 2485 3204 2190 2193 1166 1752 1802 2234 2021 2719 2006 1865 1904 814 1867 2057 2621 2241 2718 2501 1353 845
2 19 52 57 83 146 9 245 303 111 149 210 510 620 533 914 1041 1069 916 1227 1250 713 568 886 1065 1413 2230 2402 2328 2380 2087 958 1158 1776 2553 1857 2566 2855 3059 1140 2253 1435 1795 3264 2035 2334 2089 1050 1257
12 24 39 61 56 95 29 34 314 91 102 305 362 501 559 545 683 1304 1212 1199 966 446 797 1199 444 1257 1743 2110 2330 2093 1602 1263 1800 1332 1841 2241 2394 2640 3448 2192 845 2407 3089 2148 2158 2757 2039 1423 1707
0 5 17 35 50 15 21 15 59 84 7 578 418 294 532 673 648 798 768 928 891 831 1276 1095 1146 1268 1676 2371 2220 1926 2086 2385 1706 1493 1875 2516 2649 2668 2853 2132 2028 2448 2427 1621 1896 1263 2399 1229 1643
0 2 7 17 56 2 16 0 43 67 30 463 627 478 481 522 564 714 638 689 770 1081 1505 1221 1333 2109 1981 1956 2291 1863 1780 1702 1543 1774 1483 2785 3039 3047 3824 1864 1654 2263 1007 2482 2247 2523 2153 1535 511
0 7 0 0 13 24 2 69 60 40 44 84 480 839 382 465 536 750 658 701 873 998 1432 1386 1983 2597 1963 1938 1818 1846 1273 1623 1606 1736 1918 3177 3095 3067 3757 2740 1418 3157 2392 2387 2802 2778 2058 1669 61
0 0 0 0 10 26 24 64 269 75 38 26 565 346 843 471 499 770 749 736 770 1065 1386 1868 1986 2531 2355 1929 1791 1578 1844 1236 1074 1415 2172 2619 2669 3293 3081 2519 3216 2426 1159 2875 2575 2938 1669 1664 725
0 0 0 0 0 46 31 19 142 323 277 0 0 826 833 817 562 708 767 712 655 1075 1456 1864 2032 2906 2438 2063 2146 2603 2055 2366 1294 1023 1460 2013 2527 3382 3118 3273 2919 2673 2249 2676 2500 2661 2286 811 270
0 0 0 2 14 15 58 48 123 73 130 232 382 773 659 893 818 567 622 639 577 974 1375 1961 2223 2466 2640 2564 1933 2094 1066 890 769 1119 1149 1817 2431 3048 3379 3253 2889 3342 2860 2744 2945 2879 2852 1981 783
0 0 0 0 3 8 11 73 54 151 85 60 317 269 737 711 902 690 567 573 627 849 1421 1786 2369 2390 2749 2154 2539 1710 1624 900 1138 887 1891 2006 3118 3314 3449 3595 3631 3290 2966 2935 2458 3190 2493 3104 1843
0 0 0 0 0 2 0 21 8 54 136 51 84 71 782 742 990 1047 727 673 616 762 1180 1584 2336 2462 2692 2781 2172 3160 1720 1848 867 1181 1545 2361 2851 3049 3484 3634 3618 3245 3049 3035 3188 3916 3342 3118 3068
0 0 0 0 0 0 0 0 26 86 135 38 83 55 184 945 1042 1224 1063 801 710 773 888 1328 2525 2820 2803 3056 2742 2187 3396 1996 2331 3480 1186 1920 1855 2358 2618 3190 3919 3205 3384 3660 3291 4202 3670 3165 2976
0 0 0 0 0 0 0 0 0 2 32 99 96 66 134 416 1078 1258 1298 1039 825 771 894 1234 2421 2858 3165 2771 3079 2723 2709 3204 1721 2042 2192 1479 1894 1910 2871 2699 2908 3163 3032 3039 4001 3932 3313 3210 2973
0 0 0 0 0 0 0 0 0 0 0 17 34 137 256 250 1048 1237 1394 1224 898 836 951 1077 2181 2990 3340 3159 3299 3367 2649 2758 2793 1851 2510 3062 2185 2206 4196 2951 2912 3263 3637 3409 3520 3035 3556 3468 3012
0 0 0 0 0 0 0 0 0 0 0 0 0 17 98 399 663 1101 1313 1374 1128 841 955 1247 2069 3049 3509 3612 3420 3478 3418 2611 2459 2909 2020 2208 3003 3340 4117 3393 3344 3376 3167 3631 3418 3460 3384 3177 3139
0 0 0 0 0 0 0 0 13 0 0 0 0 0 0 318 557 930 1221 1427 1412 1042 986 1320 1703 3026 3519 3617 3708 3560 3574 3394 2902 2284 2755 2440 2842 3071 4311 3957 3258 3108 3204 3200 3698 3177 3056 3347 2772
0 0 0 0 0 0 0 2 0 0 0 0 0 0 0 79 640 826 1190 1501 1622 1463 1211 1336 1611 2121 3323 3746 3781 3770 3850 3903 3651 2996 2726 2970 3340 3526 3526 3943 3566 3279 2995 3322 3427 3387 2600 3231 2862